Wetterdaten: Freitag, 21.02.2014
Datum Zeit Temp. Aussen +5cm Feuchte Auss Luftdruck Regen Sonnenschein Regendauer UV Solar Windben
21.02.2014 00:00 9,2 C 7,8 C 96 % 1003,0 hPa 0,0 l/m 0 min 2 min 0,0 UV-I 0 W/m 7,7 km/h (2 Bft)
21.02.2014 00:02 9,2 C 7,8 C 96 % 1003,0 hPa 0,0 l/m 0 min 2 min 0,0 UV-I 0 W/m 12,9 km/h (3 Bft)
21.02.2014 00:06 9,2 C 7,8 C 96 % 1003,0 hPa 0,0 l/m 0 min 2 min 0,0 UV-I 0 W/m 15,4 km/h (3 Bft)
21.02.2014 00:08 9,2 C 7,8 C 96 % 1002,9 hPa 0,2 l/m 0 min 2 min 0,0 UV-I 0 W/m 10,3 km/h (2 Bft)
21.02.2014 00:10 9,3 C 7,8 C 96 % 1003,1 hPa 0,0 l/m 0 min 2 min 0,0 UV-I 0 W/m 20,6 km/h (4 Bft)
21.02.2014 00:12 9,3 C 7,8 C 96 % 1003,1 hPa 0,0 l/m 0 min 2 min 0,0 UV-I 0 W/m 15,4 km/h (3 Bft)
21.02.2014 00:14 9,3 C 7,8 C 96 % 1003,1 hPa 0,0 l/m 0 min 2 min 0,0 UV-I 0 W/m 15,4 km/h (3 Bft)
21.02.2014 00:16 9,3 C 7,8 C 96 % 1003,1 hPa 0,0 l/m 0 min 2 min 0,0 UV-I 0 W/m 5,1 km/h (1 Bft)
21.02.2014 00:18 9,3 C 7,8 C 96 % 1003,1 hPa 0,0 l/m 0 min 2 min 0,0 UV-I 0 W/m 0,0 km/h (0 Bft)
21.02.2014 00:20 9,3 C 7,8 C 96 % 1003,1 hPa 0,0 l/m 0 min 2 min 0,0 UV-I 0 W/m 0,0 km/h (0 Bft)
21.02.2014 00:22 9,3 C 7,8 C 96 % 1003,1 hPa 0,0 l/m 0 min 2 min 0,0 UV-I 0 W/m 0,0 km/h (0 Bft)
21.02.2014 00:24 9,3 C 7,8 C 96 % 1003,1 hPa 0,0 l/m 0 min 2 min 0,0 UV-I 0 W/m 10,3 km/h (2 Bft)
21.02.2014 00:26 9,3 C 7,2 C 96 % 1003,1 hPa 0,0 l/m 0 min 2 min 0,0 UV-I 0 W/m 5,1 km/h (1 Bft)
21.02.2014 00:28 9,3 C 7,2 C 96 % 1003,1 hPa 0,0 l/m 0 min 2 min 0,0 UV-I 0 W/m 5,1 km/h (1 Bft)
21.02.2014 00:30 9,3 C 7,2 C 96 % 1003,1 hPa 0,0 l/m 0 min 2 min 0,0 UV-I 0 W/m 0,0 km/h (0 Bft)
21.02.2014 00:32 9,3 C 7,2 C 96 % 1003,1 hPa 0,0 l/m 0 min 0 min 0,0 UV-I 0 W/m 2,6 km/h (1 Bft)
21.02.2014 00:34 9,3 C 7,2 C 96 % 1003,1 hPa 0,0 l/m 0 min 0 min 0,0 UV-I 0 W/m 10,3 km/h (2 Bft)
21.02.2014 00:36 9,3 C 7,2 C 96 % 1003,1 hPa 0,0 l/m 0 min 0 min 0,0 UV-I 0 W/m 0,0 km/h (0 Bft)
21.02.2014 00:38 9,3 C 7,2 C 96 % 1003,2 hPa 0,0 l/m 0 min 0 min 0,0 UV-I 0 W/m 2,6 km/h (1 Bft)
21.02.2014 00:40 9,3 C 7,2 C 96 % 1003,2 hPa 0,0 l/m 0 min 0 min 0,0 UV-I 0 W/m 5,1 km/h (1 Bft)
21.02.2014 00:42 9,3 C 7,2 C 96 % 1003,2 hPa 0,0 l/m 0 min 0 min 0,0 UV-I 0 W/m 2,6 km/h (1 Bft)
21.02.2014 00:44 9,3 C 7,2 C 96 % 1003,2 hPa 0,0 l/m 0 min 0 min 0,0 UV-I 0 W/m 0,0 km/h (0 Bft)
21.02.2014 00:46 9,2 C 7,2 C 96 % 1003,3 hPa 0,0 l/m 0 min 0 min 0,0 UV-I 0 W/m 2,6 km/h (1 Bft)
21.02.2014 00:48 9,2 C 7,2 C 96 % 1003,2 hPa 0,0 l/m 0 min 0 min 0,0 UV-I 0 W/m 7,7 km/h (2 Bft)
21.02.2014 00:50 9,2 C 7,2 C 96 % 1003,4 hPa 0,0 l/m 0 min 0 min 0,0 UV-I 0 W/m 10,3 km/h (2 Bft)
21.02.2014 00:52 9,2 C 7,2 C 96 % 1003,4 hPa 0,0 l/m 0 min 0 min 0,0 UV-I 0 W/m 0,0 km/h (0 Bft)
21.02.2014 00:54 9,2 C 7,2 C 96 % 1003,4 hPa 0,0 l/m 0 min 0 min 0,0 UV-I 0 W/m 0,0 km/h (0 Bft)
21.02.2014 00:56 9,2 C 7,2 C 96 % 1003,4 hPa 0,0 l/m 0 min 0 min 0,0 UV-I 0 W/m 12,9 km/h (3 Bft)
21.02.2014 00:58 9,2 C 7,2 C 96 % 1003,4 hPa 0,0 l/m 0 min 0 min 0,0 UV-I 0 W/m 0,0 km/h (0 Bft)
21.02.2014 01:00 9,2 C 7,2 C 96 % 1003,4 hPa 0,0 l/m 0 min 0 min 0,0 UV-I 0 W/m 2,6 km/h (1 Bft)
21.02.2014 01:02 9,2 C 7,2 C 96 % 1003,4 hPa 0,0 l/m 0 min 0 min 0,0 UV-I 0 W/m 12,9 km/h (3 Bft)
21.02.2014 01:04 9,2 C 7,2 C 96 % 1003,4 hPa 0,0 l/m 0 min 0 min 0,0 UV-I 0 W/m 5,1 km/h (1 Bft)
21.02.2014 01:06 9,2 C 7,2 C 96 % 1003,5 hPa 0,0 l/m 0 min 0 min 0,0 UV-I 0 W/m 2,6 km/h (1 Bft)
21.02.2014 01:08 9,2 C 7,2 C 96 % 1003,5 hPa 0,0 l/m 0 min 0 min 0,0 UV-I 0 W/m 5,1 km/h (1 Bft)
21.02.2014 01:10 9,2 C 7,2 C 96 % 1003,5 hPa 0,0 l/m 0 min 0 min 0,0 UV-I 0 W/m 5,1 km/h (1 Bft)
21.02.2014 01:12 9,2 C 7,2 C 96 % 1003,6 hPa 0,0 l/m 0 min 0 min 0,0 UV-I 0 W/m 12,9 km/h (3 Bft)
21.02.2014 01:14 9,1 C 7,2 C 96 % 1003,5 hPa 0,0 l/m 0 min 0 min 0,0 UV-I 0 W/m 0,0 km/h (0 Bft)
21.02.2014 01:16 9,1 C 7,2 C 96 % 1003,4 hPa 0,0 l/m 0 min 0 min 0,0 UV-I 0 W/m 5,1 km/h (1 Bft)
21.02.2014 01:18 9,1 C 7,2 C 96 % 1003,4 hPa 0,0 l/m 0 min 0 min 0,0 UV-I 0 W/m 0,0 km/h (0 Bft)
21.02.2014 01:20 9,1 C 7,2 C 96 % 1003,4 hPa 0,0 l/m 0 min 0 min 0,0 UV-I 0 W/m 0,0 km/h (0 Bft)
21.02.2014 01:22 9,1 C 7,2 C 96 % 1003,4 hPa 0,0 l/m 0 min 0 min 0,0 UV-I 0 W/m 0,0 km/h (0 Bft)
21.02.2014 01:24 9,1 C 7,2 C 96 % 1003,4 hPa 0,0 l/m 0 min 0 min 0,0 UV-I 0 W/m 0,0 km/h (0 Bft)
21.02.2014 01:26 9,1 C 7,2 C 96 % 1003,4 hPa 0,0 l/m 0 min 0 min 0,0 UV-I 0 W/m 10,3 km/h (2 Bft)
21.02.2014 01:28 9,0 C 7,2 C 95 % 1003,4 hPa 0,0 l/m 0 min 0 min 0,0 UV-I 0 W/m 0,0 km/h (0 Bft)
21.02.2014 01:30 9,0 C 7,2 C 95 % 1003,5 hPa 0,0 l/m 0 min 0 min 0,0 UV-I 0 W/m 7,7 km/h (2 Bft)
21.02.2014 01:32 8,9 C 7,2 C 95 % 1003,4 hPa 0,0 l/m 0 min 0 min 0,0 UV-I 0 W/m 5,1 km/h (1 Bft)
21.02.2014 01:34 8,9 C 7,2 C 95 % 1003,5 hPa 0,0 l/m 0 min 0 min 0,0 UV-I 0 W/m 7,7 km/h (2 Bft)
21.02.2014 01:36 8,9 C 6,7 C 95 % 1003,5 hPa 0,0 l/m 0 min 0 min 0,0 UV-I 0 W/m 12,9 km/h (3 Bft)
21.02.2014 01:38 8,9 C 6,7 C 95 % 1003,4 hPa 0,0 l/m 0 min 0 min 0,0 UV-I 0 W/m 5,1 km/h (1 Bft)
21.02.2014 01:40 8,9 C 6,7 C 95 % 1003,5 hPa 0,0 l/m 0 min 0 min 0,0 UV-I 0 W/m 10,3 km/h (2 Bft)
21.02.2014 01:42 8,8 C 6,7 C 95 % 1003,5 hPa 0,0 l/m 0 min 0 min 0,0 UV-I 0 W/m 0,0 km/h (0 Bft)
21.02.2014 01:44 8,8 C 6,7 C 95 % 1003,5 hPa 0,0 l/m 0 min 0 min 0,0 UV-I 0 W/m 2,6 km/h (1 Bft)
21.02.2014 01:46 8,8 C 6,1 C 95 % 1003,6 hPa 0,0 l/m 0 min 0 min 0,0 UV-I 0 W/m 7,7 km/h (2 Bft)
21.02.2014 01:48 8,7 C 6,1 C 95 % 1003,6 hPa 0,0 l/m 0 min 0 min 0,0 UV-I 0 W/m 7,7 km/h (2 Bft)
21.02.2014 01:50 8,7 C 6,1 C 95 % 1003,5 hPa 0,0 l/m 0 min 0 min 0,0 UV-I 0 W/m 7,7 km/h (2 Bft)
21.02.2014 01:52 8,7 C 6,1 C 95 % 1003,6 hPa 0,0 l/m 0 min 0 min 0,0 UV-I 0 W/m 15,4 km/h (3 Bft)
21.02.2014 01:54 8,6 C 6,1 C 95 % 1003,6 hPa 0,0 l/m 0 min 0 min 0,0 UV-I 0 W/m 0,0 km/h (0 Bft)
21.02.2014 01:56 8,5 C 6,1 C 94 % 1003,7 hPa 0,0 l/m 0 min 0 min 0,0 UV-I 0 W/m 7,7 km/h (2 Bft)
21.02.2014 01:58 8,4 C 6,1 C 94 % 1003,7 hPa 0,0 l/m 0 min 0 min 0,0 UV-I 0 W/m 10,3 km/h (2 Bft)
21.02.2014 02:00 8,4 C 6,1 C 94 % 1003,7 hPa 0,0 l/m 0 min 0 min 0,0 UV-I 0 W/m 0,0 km/h (0 Bft)
21.02.2014 02:02 8,3 C 5,6 C 94 % 1003,7 hPa 0,0 l/m 0 min 0 min 0,0 UV-I 0 W/m 0,0 km/h (0 Bft)
21.02.2014 02:04 8,3 C 5,6 C 94 % 1003,8 hPa 0,0 l/m 0 min 0 min 0,0 UV-I 0 W/m 5,1 km/h (1 Bft)
21.02.2014 02:06 8,3 C 5,6 C 94 % 1003,7 hPa 0,0 l/m 0 min 0 min 0,0 UV-I 0 W/m 7,7 km/h (2 Bft)
21.02.2014 02:08 8,2 C 6,1 C 94 % 1003,7 hPa 0,0 l/m 0 min 0 min 0,0 UV-I 0 W/m 5,1 km/h (1 Bft)
21.02.2014 02:10 8,2 C 6,1 C 93 % 1003,8 hPa 0,0 l/m 0 min 0 min 0,0 UV-I 0 W/m 10,3 km/h (2 Bft)
21.02.2014 02:12 8,2 C 5,6 C 93 % 1003,8 hPa 0,0 l/m 0 min 0 min 0,0 UV-I 0 W/m 2,6 km/h (1 Bft)
21.02.2014 02:14 8,1 C 5,6 C 93 % 1003,8 hPa 0,0 l/m 0 min 0 min 0,0 UV-I 0 W/m 10,3 km/h (2 Bft)
21.02.2014 02:16 8,1 C 5,6 C 93 % 1003,8 hPa 0,0 l/m 0 min 0 min 0,0 UV-I 0 W/m 2,6 km/h (1 Bft)
21.02.2014 02:18 8,1 C 5,6 C 93 % 1003,8 hPa 0,0 l/m 0 min 0 min 0,0 UV-I 0 W/m 0,0 km/h (0 Bft)
21.02.2014 02:20 8,1 C 5,6 C 93 % 1003,9 hPa 0,0 l/m 0 min 0 min 0,0 UV-I 0 W/m 10,3 km/h (2 Bft)
21.02.2014 02:22 8,0 C 5,6 C 93 % 1003,9 hPa 0,0 l/m 0 min 0 min 0,0 UV-I 0 W/m 5,1 km/h (1 Bft)
21.02.2014 02:24 8,0 C 5,6 C 93 % 1003,8 hPa 0,0 l/m 0 min 0 min 0,0 UV-I 0 W/m 7,7 km/h (2 Bft)
21.02.2014 02:26 8,0 C 6,1 C 93 % 1003,8 hPa 0,0 l/m 0 min 0 min 0,0 UV-I 0 W/m 15,4 km/h (3 Bft)
21.02.2014 02:28 7,9 C 5,6 C 93 % 1003,9 hPa 0,0 l/m 0 min 0 min 0,0 UV-I 0 W/m 10,3 km/h (2 Bft)
21.02.2014 02:30 7,9 C 5,6 C 93 % 1003,8 hPa 0,0 l/m 0 min 0 min 0,0 UV-I 0 W/m 2,6 km/h (1 Bft)
21.02.2014 02:32 7,9 C 5,6 C 93 % 1003,7 hPa 0,0 l/m 0 min 0 min 0,0 UV-I 0 W/m 5,1 km/h (1 Bft)
21.02.2014 02:34 7,9 C 5,6 C 93 % 1003,7 hPa 0,0 l/m 0 min 0 min 0,0 UV-I 0 W/m 10,3 km/h (2 Bft)
21.02.2014 02:36 7,9 C 5,6 C 93 % 1003,8 hPa 0,0 l/m 0 min 0 min 0,0 UV-I 0 W/m 0,0 km/h (0 Bft)
21.02.2014 02:38 7,9 C 5,6 C 93 % 1003,8 hPa 0,0 l/m 0 min 0 min 0,0 UV-I 0 W/m 0,0 km/h (0 Bft)
21.02.2014 02:40 7,9 C 5,6 C 93 % 1003,8 hPa 0,0 l/m 0 min 0 min 0,0 UV-I 0 W/m 7,7 km/h (2 Bft)
21.02.2014 02:42 7,8 C 5,6 C 93 % 1003,7 hPa 0,0 l/m 0 min 0 min 0,0 UV-I 0 W/m 5,1 km/h (1 Bft)
21.02.2014 02:44 7,8 C 5,6 C 93 % 1003,8 hPa 0,0 l/m 0 min 0 min 0,0 UV-I 0 W/m 2,6 km/h (1 Bft)
21.02.2014 02:46 7,8 C 5,6 C 93 % 1003,8 hPa 0,0 l/m 0 min 0 min 0,0 UV-I 0 W/m 5,1 km/h (1 Bft)
21.02.2014 02:48 7,8 C 5,6 C 93 % 1003,8 hPa 0,0 l/m 0 min 0 min 0,0 UV-I 0 W/m 2,6 km/h (1 Bft)
21.02.2014 02:50 7,8 C 5,6 C 93 % 1003,8 hPa 0,0 l/m 0 min 0 min 0,0 UV-I 0 W/m 0,0 km/h (0 Bft)
21.02.2014 02:52 7,8 C 5,6 C 93 % 1003,8 hPa 0,0 l/m 0 min 0 min 0,0 UV-I 0 W/m 2,6 km/h (1 Bft)
21.02.2014 02:54 7,8 C 5,6 C 93 % 1003,8 hPa 0,0 l/m 0 min 0 min 0,0 UV-I 0 W/m 5,1 km/h (1 Bft)
21.02.2014 02:56 7,8 C 5,6 C 93 % 1003,8 hPa 0,0 l/m 0 min 0 min 0,0 UV-I 0 W/m 7,7 km/h (2 Bft)
21.02.2014 02:58 7,8 C 5,6 C 93 % 1003,6 hPa 0,0 l/m 0 min 0 min 0,0 UV-I 0 W/m 5,1 km/h (1 Bft)
21.02.2014 03:00 7,8 C 5,6 C 93 % 1003,8 hPa 0,0 l/m 0 min 0 min 0,0 UV-I 0 W/m 10,3 km/h (2 Bft)
21.02.2014 03:02 7,8 C 5,6 C 93 % 1003,8 hPa 0,0 l/m 0 min 0 min 0,0 UV-I 0 W/m 2,6 km/h (1 Bft)
21.02.2014 03:04 7,8 C 5,6 C 93 % 1003,8 hPa 0,0 l/m 0 min 0 min 0,0 UV-I 0 W/m 2,6 km/h (1 Bft)
21.02.2014 03:06 7,8 C 5,6 C 93 % 1003,8 hPa 0,0 l/m 0 min 0 min 0,0 UV-I 0 W/m 7,7 km/h (2 Bft)
21.02.2014 03:08 7,8 C 5,6 C 93 % 1003,8 hPa 0,0 l/m 0 min 0 min 0,0 UV-I 0 W/m 10,3 km/h (2 Bft)
21.02.2014 03:10 7,8 C 5,6 C 93 % 1003,8 hPa 0,0 l/m 0 min 0 min 0,0 UV-I 0 W/m 12,9 km/h (3 Bft)
21.02.2014 03:12 7,8 C 5,6 C 93 % 1003,8 hPa 0,0 l/m 0 min 0 min 0,0 UV-I 0 W/m 7,7 km/h (2 Bft)
21.02.2014 03:14 7,7 C 5,6 C 93 % 1003,7 hPa 0,0 l/m 0 min 0 min 0,0 UV-I 0 W/m 7,7 km/h (2 Bft)
21.02.2014 03:16 7,7 C 5,6 C 93 % 1003,6 hPa 0,0 l/m 0 min 0 min 0,0 UV-I 0 W/m 0,0 km/h (0 Bft)
21.02.2014 03:18 7,7 C 5,6 C 92 % 1003,7 hPa 0,0 l/m 0 min 0 min 0,0 UV-I 0 W/m 7,7 km/h (2 Bft)
21.02.2014 03:20 7,7 C 5,6 C 92 % 1003,7 hPa 0,0 l/m 0 min 0 min 0,0 UV-I 0 W/m 0,0 km/h (0 Bft)
21.02.2014 03:22 7,7 C 5,6 C 92 % 1003,7 hPa 0,0 l/m 0 min 0 min 0,0 UV-I 0 W/m 0,0 km/h (0 Bft)
21.02.2014 03:24 7,7 C 5,0 C 92 % 1003,7 hPa 0,0 l/m 0 min 0 min 0,0 UV-I 0 W/m 2,6 km/h (1 Bft)
21.02.2014 03:26 7,7 C 5,0 C 92 % 1003,7 hPa 0,0 l/m 0 min 0 min 0,0 UV-I 0 W/m 0,0 km/h (0 Bft)
21.02.2014 03:28 7,7 C 5,0 C 92 % 1003,7 hPa 0,0 l/m 0 min 0 min 0,0 UV-I 0 W/m 0,0 km/h (0 Bft)
21.02.2014 03:30 7,6 C 5,0 C 92 % 1003,6 hPa 0,0 l/m 0 min 0 min 0,0 UV-I 0 W/m 5,1 km/h (1 Bft)
21.02.2014 03:32 7,6 C 5,0 C 92 % 1003,6 hPa 0,0 l/m 0 min 0 min 0,0 UV-I 0 W/m 0,0 km/h (0 Bft)
21.02.2014 03:34 7,6 C 5,6 C 92 % 1003,6 hPa 0,0 l/m 0 min 0 min 0,0 UV-I 0 W/m 0,0 km/h (0 Bft)
21.02.2014 03:36 7,6 C 5,6 C 92 % 1003,5 hPa 0,0 l/m 0 min 0 min 0,0 UV-I 0 W/m 7,7 km/h (2 Bft)
21.02.2014 03:38 7,6 C 5,6 C 92 % 1003,6 hPa 0,0 l/m 0 min 0 min 0,0 UV-I 0 W/m 0,0 km/h (0 Bft)
21.02.2014 03:40 7,6 C 5,6 C 92 % 1003,6 hPa 0,0 l/m 0 min 0 min 0,0 UV-I 0 W/m 2,6 km/h (1 Bft)
21.02.2014 03:42 7,6 C 5,6 C 92 % 1003,6 hPa 0,0 l/m 0 min 0 min 0,0 UV-I 0 W/m 0,0 km/h (0 Bft)
21.02.2014 03:44 7,6 C 5,6 C 93 % 1003,7 hPa 0,0 l/m 0 min 0 min 0,0 UV-I 0 W/m 7,7 km/h (2 Bft)
21.02.2014 03:46 7,6 C 5,6 C 93 % 1003,6 hPa 0,0 l/m 0 min 0 min 0,0 UV-I 0 W/m 7,7 km/h (2 Bft)
21.02.2014 03:48 7,5 C 5,6 C 93 % 1003,7 hPa 0,0 l/m 0 min 0 min 0,0 UV-I 0 W/m 10,3 km/h (2 Bft)
21.02.2014 03:50 7,5 C 5,6 C 93 % 1003,6 hPa 0,0 l/m 0 min 0 min 0,0 UV-I 0 W/m 10,3 km/h (2 Bft)
21.02.2014 03:52 7,5 C 5,6 C 93 % 1003,6 hPa 0,0 l/m 0 min 0 min 0,0 UV-I 0 W/m 2,6 km/h (1 Bft)
21.02.2014 03:54 7,5 C 5,6 C 93 % 1003,7 hPa 0,0 l/m 0 min 0 min 0,0 UV-I 0 W/m 7,7 km/h (2 Bft)
21.02.2014 03:56 7,5 C 5,6 C 93 % 1003,6 hPa 0,0 l/m 0 min 0 min 0,0 UV-I 0 W/m 5,1 km/h (1 Bft)
21.02.2014 03:58 7,5 C 5,6 C 93 % 1003,5 hPa 0,0 l/m 0 min 0 min 0,0 UV-I 0 W/m 5,1 km/h (1 Bft)
21.02.2014 04:00 7,5 C 5,6 C 93 % 1003,5 hPa 0,0 l/m 0 min 0 min 0,0 UV-I 0 W/m 2,6 km/h (1 Bft)
21.02.2014 04:05 7,5 C 5,6 C 93 % 1003,3 hPa 0,0 l/m 0 min 0 min 0,0 UV-I 0 W/m 15,4 km/h (3 Bft)
21.02.2014 04:06 7,5 C 5,6 C 93 % 1003,4 hPa 0,0 l/m 0 min 0 min 0,0 UV-I 0 W/m 15,4 km/h (3 Bft)
21.02.2014 04:08 7,5 C 5,6 C 93 % 1003,4 hPa 0,0 l/m 0 min 0 min 0,0 UV-I 0 W/m 0,0 km/h (0 Bft)
21.02.2014 04:10 7,5 C 5,6 C 93 % 1003,3 hPa 0,0 l/m 0 min 0 min 0,0 UV-I 0 W/m 0,0 km/h (0 Bft)
21.02.2014 04:12 7,5 C 5,6 C 93 % 1003,3 hPa 0,0 l/m 0 min 0 min 0,0 UV-I 0 W/m 2,6 km/h (1 Bft)
21.02.2014 04:14 7,5 C 5,6 C 93 % 1003,3 hPa 0,0 l/m 0 min 0 min 0,0 UV-I 0 W/m 7,7 km/h (2 Bft)
21.02.2014 04:16 7,5 C 5,6 C 93 % 1003,3 hPa 0,0 l/m 0 min 0 min 0,0 UV-I 0 W/m 0,0 km/h (0 Bft)
21.02.2014 04:18 7,5 C 5,6 C 93 % 1003,3 hPa 0,0 l/m 0 min 0 min 0,0 UV-I 0 W/m 2,6 km/h (1 Bft)
21.02.2014 04:20 7,5 C 5,6 C 93 % 1003,2 hPa 0,0 l/m 0 min 0 min 0,0 UV-I 0 W/m 0,0 km/h (0 Bft)
21.02.2014 04:22 7,5 C 5,6 C 93 % 1003,1 hPa 0,0 l/m 0 min 0 min 0,0 UV-I 0 W/m 0,0 km/h (0 Bft)
21.02.2014 04:24 7,5 C 5,6 C 93 % 1003,1 hPa 0,0 l/m 0 min 0 min 0,0 UV-I 0 W/m 0,0 km/h (0 Bft)
21.02.2014 04:26 7,5 C 5,6 C 93 % 1003,1 hPa 0,0 l/m 0 min 0 min 0,0 UV-I 0 W/m 0,0 km/h (0 Bft)
21.02.2014 04:28 7,5 C 5,6 C 93 % 1003,1 hPa 0,0 l/m 0 min 0 min 0,0 UV-I 0 W/m 0,0 km/h (0 Bft)
21.02.2014 04:30 7,5 C 5,6 C 93 % 1003,1 hPa 0,0 l/m 0 min 0 min 0,0 UV-I 0 W/m 5,1 km/h (1 Bft)
21.02.2014 04:32 7,5 C 6,1 C 93 % 1003,1 hPa 0,0 l/m 0 min 0 min 0,0 UV-I 0 W/m 12,9 km/h (3 Bft)
21.02.2014 04:34 7,5 C 6,1 C 93 % 1003,1 hPa 0,0 l/m 0 min 0 min 0,0 UV-I 0 W/m 5,1 km/h (1 Bft)
21.02.2014 04:36 7,6 C 6,1 C 93 % 1003,1 hPa 0,0 l/m 0 min 0 min 0,0 UV-I 0 W/m 5,1 km/h (1 Bft)
21.02.2014 04:38 7,5 C 6,1 C 93 % 1003,1 hPa 0,0 l/m 0 min 0 min 0,0 UV-I 0 W/m 0,0 km/h (0 Bft)
21.02.2014 04:40 7,6 C 6,1 C 93 % 1003,1 hPa 0,0 l/m 0 min 0 min 0,0 UV-I 0 W/m 0,0 km/h (0 Bft)
21.02.2014 04:42 7,6 C 6,1 C 93 % 1003,1 hPa 0,0 l/m 0 min 0 min 0,0 UV-I 0 W/m 12,9 km/h (3 Bft)
21.02.2014 04:44 7,6 C 6,1 C 93 % 1003,0 hPa 0,0 l/m 0 min 2 min 0,0 UV-I 0 W/m 7,7 km/h (2 Bft)
21.02.2014 04:46 7,6 C 6,1 C 93 % 1003,1 hPa 0,0 l/m 0 min 2 min 0,0 UV-I 0 W/m 10,3 km/h (2 Bft)
21.02.2014 04:48 7,6 C 6,1 C 93 % 1003,0 hPa 0,0 l/m 0 min 0 min 0,0 UV-I 0 W/m 7,7 km/h (2 Bft)
21.02.2014 04:50 7,6 C 6,1 C 93 % 1003,0 hPa 0,0 l/m 0 min 0 min 0,0 UV-I 0 W/m 5,1 km/h (1 Bft)
21.02.2014 04:52 7,6 C 6,1 C 93 % 1003,0 hPa 0,0 l/m 0 min 0 min 0,0 UV-I 0 W/m 7,7 km/h (2 Bft)
21.02.2014 04:54 7,6 C 6,1 C 93 % 1003,1 hPa 0,0 l/m 0 min 0 min 0,0 UV-I 0 W/m 7,7 km/h (2 Bft)
21.02.2014 04:56 7,7 C 6,1 C 93 % 1003,0 hPa 0,0 l/m 0 min 2 min 0,0 UV-I 0 W/m 12,9 km/h (3 Bft)
21.02.2014 04:58 7,7 C 6,1 C 93 % 1003,1 hPa 0,0 l/m 0 min 2 min 0,0 UV-I 0 W/m 12,9 km/h (3 Bft)
21.02.2014 05:00 7,7 C 6,1 C 93 % 1003,1 hPa 0,0 l/m 0 min 0 min 0,0 UV-I 0 W/m 7,7 km/h (2 Bft)
21.02.2014 05:02 7,7 C 6,1 C 93 % 1003,1 hPa 0,0 l/m 0 min 2 min 0,0 UV-I 0 W/m 10,3 km/h (2 Bft)
21.02.2014 05:04 7,7 C 6,1 C 93 % 1003,1 hPa 0,0 l/m 0 min 2 min 0,0 UV-I 0 W/m 10,3 km/h (2 Bft)
21.02.2014 05:06 7,7 C 6,1 C 93 % 1003,1 hPa 0,0 l/m 0 min 2 min 0,0 UV-I 0 W/m 10,3 km/h (2 Bft)
21.02.2014 05:08 7,7 C 6,1 C 93 % 1003,3 hPa 0,0 l/m 0 min 0 min 0,0 UV-I 0 W/m 10,3 km/h (2 Bft)
21.02.2014 05:10 7,7 C 6,1 C 93 % 1003,2 hPa 0,0 l/m 0 min 2 min 0,0 UV-I 0 W/m 15,4 km/h (3 Bft)
21.02.2014 05:12 7,7 C 6,1 C 93 % 1003,1 hPa 0,0 l/m 0 min 2 min 0,0 UV-I 0 W/m 7,7 km/h (2 Bft)
21.02.2014 05:14 7,7 C 6,1 C 93 % 1003,0 hPa 0,0 l/m 0 min 0 min 0,0 UV-I 0 W/m 7,7 km/h (2 Bft)
21.02.2014 05:16 7,7 C 5,6 C 92 % 1003,0 hPa 0,0 l/m 0 min 2 min 0,0 UV-I 0 W/m 2,6 km/h (1 Bft)
21.02.2014 05:18 7,7 C 5,6 C 92 % 1003,1 hPa 0,0 l/m 0 min 0 min 0,0 UV-I 0 W/m 0,0 km/h (0 Bft)
21.02.2014 05:20 7,7 C 5,6 C 92 % 1003,1 hPa 0,0 l/m 0 min 0 min 0,0 UV-I 0 W/m 12,9 km/h (3 Bft)
21.02.2014 05:22 7,7 C 5,6 C 92 % 1003,1 hPa 0,0 l/m 0 min 0 min 0,0 UV-I 0 W/m 5,1 km/h (1 Bft)
21.02.2014 05:24 7,7 C 6,1 C 92 % 1003,1 hPa 0,0 l/m 0 min 0 min 0,0 UV-I 0 W/m 12,9 km/h (3 Bft)
21.02.2014 05:26 7,7 C 6,1 C 92 % 1003,1 hPa 0,0 l/m 0 min 0 min 0,0 UV-I 0 W/m 10,3 km/h (2 Bft)
21.02.2014 05:28 7,7 C 6,1 C 92 % 1003,1 hPa 0,0 l/m 0 min 0 min 0,0 UV-I 0 W/m 2,6 km/h (1 Bft)
21.02.2014 05:30 7,7 C 5,6 C 92 % 1003,1 hPa 0,0 l/m 0 min 0 min 0,0 UV-I 0 W/m 0,0 km/h (0 Bft)
21.02.2014 05:32 7,7 C 5,6 C 92 % 1003,1 hPa 0,0 l/m 0 min 0 min 0,0 UV-I 0 W/m 12,9 km/h (3 Bft)
21.02.2014 05:34 7,7 C 5,6 C 92 % 1003,1 hPa 0,0 l/m 0 min 0 min 0,0 UV-I 0 W/m 7,7 km/h (2 Bft)
21.02.2014 05:36 7,7 C 5,6 C 91 % 1003,1 hPa 0,0 l/m 0 min 0 min 0,0 UV-I 0 W/m 12,9 km/h (3 Bft)
21.02.2014 05:38 7,6 C 5,6 C 91 % 1003,1 hPa 0,0 l/m 0 min 0 min 0,0 UV-I 0 W/m 5,1 km/h (1 Bft)
21.02.2014 05:40 7,6 C 5,6 C 91 % 1003,1 hPa 0,0 l/m 0 min 0 min 0,0 UV-I 0 W/m 7,7 km/h (2 Bft)
21.02.2014 05:42 7,6 C 5,6 C 91 % 1003,1 hPa 0,0 l/m 0 min 0 min 0,0 UV-I 0 W/m 5,1 km/h (1 Bft)
21.02.2014 05:44 7,6 C 5,6 C 91 % 1003,0 hPa 0,0 l/m 0 min 0 min 0,0 UV-I 0 W/m 10,3 km/h (2 Bft)
21.02.2014 05:46 7,6 C 5,6 C 91 % 1003,0 hPa 0,0 l/m 0 min 0 min 0,0 UV-I 0 W/m 10,3 km/h (2 Bft)
21.02.2014 05:48 7,6 C 5,6 C 91 % 1003,0 hPa 0,0 l/m 0 min 0 min 0,0 UV-I 0 W/m 2,6 km/h (1 Bft)
21.02.2014 05:50 7,6 C 5,6 C 91 % 1003,1 hPa 0,0 l/m 0 min 0 min 0,0 UV-I 0 W/m 10,3 km/h (2 Bft)
21.02.2014 05:52 7,6 C 5,6 C 91 % 1003,0 hPa 0,0 l/m 0 min 0 min 0,0 UV-I 0 W/m 5,1 km/h (1 Bft)
21.02.2014 05:54 7,6 C 5,6 C 91 % 1003,1 hPa 0,0 l/m 0 min 0 min 0,0 UV-I 0 W/m 0,0 km/h (0 Bft)
21.02.2014 05:56 7,6 C 5,6 C 91 % 1003,0 hPa 0,0 l/m 0 min 2 min 0,0 UV-I 0 W/m 0,0 km/h (0 Bft)
21.02.2014 05:58 7,6 C 5,6 C 91 % 1003,1 hPa 0,0 l/m 0 min 0 min 0,0 UV-I 0 W/m 7,7 km/h (2 Bft)
21.02.2014 06:00 7,6 C 5,6 C 91 % 1003,1 hPa 0,0 l/m 0 min 2 min 0,0 UV-I 0 W/m 2,6 km/h (1 Bft)
21.02.2014 06:02 7,6 C 5,6 C 91 % 1003,0 hPa 0,2 l/m 0 min 2 min 0,0 UV-I 0 W/m 7,7 km/h (2 Bft)
21.02.2014 06:04 7,6 C 5,6 C 91 % 1003,0 hPa 0,0 l/m 0 min 2 min 0,0 UV-I 0 W/m 10,3 km/h (2 Bft)
21.02.2014 06:06 7,6 C 5,6 C 91 % 1003,0 hPa 0,0 l/m 0 min 2 min 0,0 UV-I 0 W/m 12,9 km/h (3 Bft)
21.02.2014 06:08 7,6 C 5,6 C 91 % 1003,0 hPa 0,0 l/m 0 min 0 min 0,0 UV-I 0 W/m 7,7 km/h (2 Bft)
21.02.2014 06:10 7,6 C 5,6 C 91 % 1003,0 hPa 0,0 l/m 0 min 0 min 0,0 UV-I 0 W/m 0,0 km/h (0 Bft)
21.02.2014 06:12 7,6 C 5,6 C 91 % 1003,0 hPa 0,0 l/m 0 min 0 min 0,0 UV-I 0 W/m 7,7 km/h (2 Bft)
21.02.2014 06:14 7,6 C 5,6 C 91 % 1003,1 hPa 0,0 l/m 0 min 0 min 0,0 UV-I 0 W/m 15,4 km/h (3 Bft)
21.02.2014 06:16 7,6 C 5,6 C 91 % 1003,1 hPa 0,0 l/m 0 min 0 min 0,0 UV-I 0 W/m 15,4 km/h (3 Bft)
21.02.2014 06:18 7,6 C 5,6 C 91 % 1003,1 hPa 0,0 l/m 0 min 0 min 0,0 UV-I 0 W/m 7,7 km/h (2 Bft)
21.02.2014 06:20 7,6 C 5,6 C 91 % 1003,1 hPa 0,0 l/m 0 min 2 min 0,0 UV-I 0 W/m 23,2 km/h (4 Bft)
21.02.2014 06:22 7,6 C 5,6 C 91 % 1003,1 hPa 0,0 l/m 0 min 2 min 0,0 UV-I 0 W/m 7,7 km/h (2 Bft)
21.02.2014 06:24 7,6 C 5,6 C 91 % 1003,2 hPa 0,2 l/m 0 min 2 min 0,0 UV-I 0 W/m 15,4 km/h (3 Bft)
21.02.2014 06:26 7,6 C 5,6 C 91 % 1003,3 hPa 0,0 l/m 0 min 2 min 0,0 UV-I 0 W/m 12,9 km/h (3 Bft)
21.02.2014 06:28 7,6 C 5,6 C 92 % 1003,4 hPa 0,2 l/m 0 min 2 min 0,0 UV-I 0 W/m 33,5 km/h (5 Bft)
21.02.2014 06:30 7,6 C 5,6 C 92 % 1003,5 hPa 0,2 l/m 0 min 2 min 0,0 UV-I 0 W/m 20,6 km/h (4 Bft)
21.02.2014 06:32 7,6 C 5,6 C 92 % 1003,7 hPa 0,0 l/m 0 min 2 min 0,0 UV-I 0 W/m 20,6 km/h (4 Bft)
21.02.2014 06:34 7,5 C 5,6 C 92 % 1003,6 hPa 0,0 l/m 0 min 2 min 0,0 UV-I 0 W/m 20,6 km/h (4 Bft)
21.02.2014 06:36 7,5 C 5,6 C 92 % 1003,6 hPa 0,2 l/m 0 min 2 min 0,0 UV-I 0 W/m 15,4 km/h (3 Bft)
21.02.2014 06:38 7,5 C 5,6 C 92 % 1003,4 hPa 0,0 l/m 0 min 2 min 0,0 UV-I 0 W/m 7,7 km/h (2 Bft)
21.02.2014 06:40 7,4 C 5,6 C 92 % 1003,4 hPa 0,0 l/m 0 min 2 min 0,0 UV-I 0 W/m 18,0 km/h (3 Bft)
21.02.2014 06:42 7,4 C 5,6 C 92 % 1003,5 hPa 0,0 l/m 0 min 2 min 0,0 UV-I 0 W/m 5,1 km/h (1 Bft)
21.02.2014 06:44 7,4 C 5,6 C 92 % 1003,6 hPa 0,0 l/m 0 min 0 min 0,0 UV-I 0 W/m 15,4 km/h (3 Bft)
21.02.2014 06:46 7,4 C 5,6 C 92 % 1003,6 hPa 0,0 l/m 0 min 0 min 0,0 UV-I 0 W/m 7,7 km/h (2 Bft)
21.02.2014 06:48 7,3 C 5,6 C 92 % 1003,5 hPa 0,0 l/m 0 min 2 min 0,0 UV-I 0 W/m 12,9 km/h (3 Bft)
21.02.2014 06:50 7,3 C 5,0 C 92 % 1003,5 hPa 0,2 l/m 0 min 2 min 0,0 UV-I 0 W/m 23,2 km/h (4 Bft)
21.02.2014 06:52 7,3 C 5,0 C 92 % 1003,4 hPa 0,0 l/m 0 min 2 min 0,0 UV-I 0 W/m 12,9 km/h (3 Bft)
21.02.2014 06:54 7,2 C 5,0 C 92 % 1003,4 hPa 0,0 l/m 0 min 2 min 0,0 UV-I 0 W/m 12,9 km/h (3 Bft)
21.02.2014 06:56 7,2 C 5,0 C 92 % 1003,4 hPa 0,0 l/m 0 min 2 min 0,0 UV-I 0 W/m 18,0 km/h (3 Bft)
21.02.2014 06:58 7,1 C 5,0 C 92 % 1003,4 hPa 0,0 l/m 0 min 0 min 0,0 UV-I 0 W/m 10,3 km/h (2 Bft)
21.02.2014 07:00 7,1 C 5,0 C 92 % 1003,3 hPa 0,0 l/m 0 min 0 min 0,0 UV-I 0 W/m 15,4 km/h (3 Bft)
21.02.2014 07:02 7,0 C 5,0 C 92 % 1003,2 hPa 0,0 l/m 0 min 0 min 0,0 UV-I 0 W/m 7,7 km/h (2 Bft)
21.02.2014 07:04 6,9 C 5,0 C 92 % 1003,2 hPa 0,0 l/m 0 min 0 min 0,0 UV-I 0 W/m 0,0 km/h (0 Bft)
21.02.2014 07:06 6,9 C 5,0 C 92 % 1003,3 hPa 0,0 l/m 0 min 0 min 0,0 UV-I 0 W/m 5,1 km/h (1 Bft)
21.02.2014 07:08 6,9 C 5,0 C 92 % 1003,3 hPa 0,0 l/m 0 min 0 min 0,0 UV-I 0 W/m 12,9 km/h (3 Bft)
21.02.2014 07:10 6,8 C 5,0 C 92 % 1003,3 hPa 0,0 l/m 0 min 2 min 0,0 UV-I 0 W/m 7,7 km/h (2 Bft)
21.02.2014 07:12 6,8 C 5,0 C 93 % 1003,3 hPa 0,0 l/m 0 min 2 min 0,0 UV-I 0 W/m 0,0 km/h (0 Bft)
21.02.2014 07:14 6,8 C 5,0 C 93 % 1003,4 hPa 0,0 l/m 0 min 0 min 0,0 UV-I 0 W/m 7,7 km/h (2 Bft)
21.02.2014 07:16 6,8 C 5,0 C 93 % 1003,3 hPa 0,0 l/m 0 min 0 min 0,0 UV-I 0 W/m 7,7 km/h (2 Bft)
21.02.2014 07:18 6,7 C 5,0 C 93 % 1003,3 hPa 0,0 l/m 0 min 0 min 0,0 UV-I 0 W/m 7,7 km/h (2 Bft)
21.02.2014 07:20 6,7 C 4,4 C 93 % 1003,3 hPa 0,0 l/m 0 min 0 min 0,0 UV-I 0 W/m 2,6 km/h (1 Bft)
21.02.2014 07:22 6,7 C 4,4 C 93 % 1003,4 hPa 0,0 l/m 0 min 0 min 0,0 UV-I 0 W/m 7,7 km/h (2 Bft)
21.02.2014 07:24 6,7 C 4,4 C 93 % 1003,4 hPa 0,0 l/m 0 min 0 min 0,0 UV-I 0 W/m 5,1 km/h (1 Bft)
21.02.2014 07:26 6,6 C 4,4 C 93 % 1003,4 hPa 0,0 l/m 0 min 0 min 0,0 UV-I 0 W/m 7,7 km/h (2 Bft)
21.02.2014 07:28 6,6 C 4,4 C 93 % 1003,4 hPa 0,0 l/m 0 min 0 min 0,0 UV-I 0 W/m 2,6 km/h (1 Bft)
21.02.2014 07:30 6,6 C 4,4 C 93 % 1003,4 hPa 0,0 l/m 0 min 0 min 0,0 UV-I 0 W/m 7,7 km/h (2 Bft)
21.02.2014 07:32 6,6 C 4,4 C 93 % 1003,4 hPa 0,0 l/m 0 min 0 min 0,0 UV-I 0 W/m 5,1 km/h (1 Bft)
21.02.2014 07:34 6,5 C 4,4 C 93 % 1003,5 hPa 0,0 l/m 0 min 0 min 0,0 UV-I 0 W/m 5,1 km/h (1 Bft)
21.02.2014 07:36 6,5 C 4,4 C 93 % 1003,5 hPa 0,0 l/m 0 min 0 min 0,0 UV-I 0 W/m 0,0 km/h (0 Bft)
21.02.2014 07:38 6,5 C 4,4 C 93 % 1003,4 hPa 0,0 l/m 0 min 0 min 0,0 UV-I 0 W/m 0,0 km/h (0 Bft)
21.02.2014 07:40 6,4 C 4,4 C 93 % 1003,5 hPa 0,0 l/m 0 min 0 min 0,0 UV-I 0 W/m 7,7 km/h (2 Bft)
21.02.2014 07:42 6,4 C 4,4 C 93 % 1003,5 hPa 0,0 l/m 0 min 0 min 0,0 UV-I 5 W/m 10,3 km/h (2 Bft)
21.02.2014 07:44 6,4 C 4,4 C 93 % 1003,5 hPa 0,0 l/m 0 min 0 min 0,0 UV-I 5 W/m 0,0 km/h (0 Bft)
21.02.2014 07:46 6,4 C 4,4 C 93 % 1003,6 hPa 0,0 l/m 0 min 0 min 0,0 UV-I 5 W/m 2,6 km/h (1 Bft)
21.02.2014 07:48 6,4 C 4,4 C 93 % 1003,6 hPa 0,0 l/m 0 min 0 min 0,0 UV-I 5 W/m 15,4 km/h (3 Bft)
21.02.2014 07:50 6,4 C 4,4 C 93 % 1003,6 hPa 0,0 l/m 0 min 0 min 0,0 UV-I 7 W/m 7,7 km/h (2 Bft)
21.02.2014 07:52 6,4 C 4,4 C 93 % 1003,5 hPa 0,0 l/m 0 min 0 min 0,0 UV-I 9 W/m 10,3 km/h (2 Bft)
21.02.2014 07:54 6,4 C 4,4 C 94 % 1003,6 hPa 0,0 l/m 0 min 0 min 0,0 UV-I 9 W/m 7,7 km/h (2 Bft)
21.02.2014 07:56 6,4 C 5,0 C 94 % 1003,7 hPa 0,0 l/m 0 min 0 min 0,0 UV-I 11 W/m 7,7 km/h (2 Bft)
21.02.2014 07:58 6,4 C 5,0 C 94 % 1003,7 hPa 0,0 l/m 0 min 0 min 0,0 UV-I 11 W/m 12,9 km/h (3 Bft)
21.02.2014 08:00 6,4 C 5,0 C 94 % 1003,7 hPa 0,0 l/m 0 min 0 min 0,0 UV-I 12 W/m 12,9 km/h (3 Bft)
21.02.2014 08:02 6,4 C 5,0 C 94 % 1003,7 hPa 0,0 l/m 0 min 0 min 0,0 UV-I 12 W/m 2,6 km/h (1 Bft)
21.02.2014 08:04 6,5 C 5,0 C 94 % 1003,7 hPa 0,0 l/m 0 min 0 min 0,0 UV-I 12 W/m 0,0 km/h (0 Bft)
21.02.2014 08:06 6,5 C 5,0 C 94 % 1003,8 hPa 0,0 l/m 0 min 0 min 0,0 UV-I 16 W/m 12,9 km/h (3 Bft)
21.02.2014 08:08 6,5 C 5,0 C 94 % 1003,8 hPa 0,0 l/m 0 min 0 min 0,0 UV-I 18 W/m 10,3 km/h (2 Bft)
21.02.2014 08:10 6,5 C 5,0 C 94 % 1003,7 hPa 0,0 l/m 0 min 0 min 0,0 UV-I 19 W/m 10,3 km/h (2 Bft)
21.02.2014 08:12 6,5 C 5,0 C 94 % 1003,8 hPa 0,0 l/m 0 min 0 min 0,0 UV-I 19 W/m 7,7 km/h (2 Bft)
21.02.2014 08:14 6,5 C 5,0 C 94 % 1003,8 hPa 0,0 l/m 0 min 0 min 0,0 UV-I 23 W/m 0,0 km/h (0 Bft)
21.02.2014 08:16 6,5 C 5,0 C 94 % 1003,8 hPa 0,0 l/m 0 min 0 min 0,0 UV-I 25 W/m 10,3 km/h (2 Bft)
21.02.2014 08:18 6,5 C 5,0 C 94 % 1003,8 hPa 0,0 l/m 0 min 0 min 0,0 UV-I 28 W/m 10,3 km/h (2 Bft)
21.02.2014 08:20 6,5 C 5,0 C 94 % 1003,9 hPa 0,0 l/m 0 min 0 min 0,0 UV-I 35 W/m 5,1 km/h (1 Bft)
21.02.2014 08:22 6,5 C 5,0 C 94 % 1003,9 hPa 0,0 l/m 0 min 0 min 0,0 UV-I 37 W/m 20,6 km/h (4 Bft)
21.02.2014 08:24 6,5 C 5,0 C 94 % 1003,9 hPa 0,0 l/m 0 min 0 min 0,0 UV-I 37 W/m 12,9 km/h (3 Bft)
21.02.2014 08:26 6,5 C 5,0 C 94 % 1003,9 hPa 0,0 l/m 0 min 0 min 0,0 UV-I 35 W/m 15,4 km/h (3 Bft)
21.02.2014 08:28 6,5 C 5,0 C 94 % 1003,9 hPa 0,0 l/m 0 min 0 min 0,0 UV-I 33 W/m 10,3 km/h (2 Bft)
21.02.2014 08:30 6,6 C 5,0 C 94 % 1003,9 hPa 0,0 l/m 0 min 0 min 0,0 UV-I 32 W/m 25,7 km/h (4 Bft)
21.02.2014 08:32 6,6 C 5,0 C 94 % 1004,0 hPa 0,0 l/m 0 min 0 min 0,0 UV-I 32 W/m 18,0 km/h (3 Bft)
21.02.2014 08:34 6,6 C 5,0 C 94 % 1004,1 hPa 0,0 l/m 0 min 0 min 0,0 UV-I 33 W/m 15,4 km/h (3 Bft)
21.02.2014 08:36 6,6 C 5,0 C 94 % 1004,0 hPa 0,0 l/m 0 min 0 min 0,0 UV-I 35 W/m 15,4 km/h (3 Bft)
21.02.2014 08:38 6,6 C 5,0 C 94 % 1004,1 hPa 0,0 l/m 0 min 0 min 0,0 UV-I 35 W/m 25,7 km/h (4 Bft)
21.02.2014 08:40 6,6 C 5,0 C 94 % 1004,0 hPa 0,0 l/m 0 min 0 min 0,0 UV-I 35 W/m 12,9 km/h (3 Bft)
21.02.2014 08:42 6,6 C 5,0 C 94 % 1004,0 hPa 0,0 l/m 0 min 0 min 0,0 UV-I 33 W/m 20,6 km/h (4 Bft)
21.02.2014 08:44 6,7 C 5,0 C 94 % 1004,0 hPa 0,0 l/m 0 min 0 min 0,0 UV-I 33 W/m 12,9 km/h (3 Bft)
21.02.2014 08:46 6,7 C 5,0 C 94 % 1004,1 hPa 0,0 l/m 0 min 0 min 0,0 UV-I 32 W/m 12,9 km/h (3 Bft)
21.02.2014 08:48 6,7 C 5,0 C 93 % 1004,0 hPa 0,0 l/m 0 min 0 min 0,0 UV-I 32 W/m 23,2 km/h (4 Bft)
21.02.2014 08:50 6,7 C 5,0 C 93 % 1004,1 hPa 0,0 l/m 0 min 0 min 0,0 UV-I 30 W/m 10,3 km/h (2 Bft)
21.02.2014 08:52 6,7 C 5,0 C 93 % 1004,1 hPa 0,0 l/m 0 min 0 min 0,0 UV-I 30 W/m 12,9 km/h (3 Bft)
21.02.2014 08:54 6,7 C 5,0 C 93 % 1004,1 hPa 0,0 l/m 0 min 0 min 0,0 UV-I 30 W/m 12,9 km/h (3 Bft)
21.02.2014 08:56 6,7 C 5,0 C 93 % 1004,1 hPa 0,0 l/m 0 min 0 min 0,0 UV-I 30 W/m 5,1 km/h (1 Bft)
21.02.2014 08:58 6,7 C 5,0 C 93 % 1004,2 hPa 0,0 l/m 0 min 0 min 0,0 UV-I 30 W/m 12,9 km/h (3 Bft)
21.02.2014 09:00 6,7 C 5,0 C 92 % 1004,3 hPa 0,0 l/m 0 min 0 min 0,0 UV-I 28 W/m 10,3 km/h (2 Bft)
21.02.2014 09:02 6,7 C 5,0 C 92 % 1004,3 hPa 0,0 l/m 0 min 0 min 0,0 UV-I 30 W/m 7,7 km/h (2 Bft)
21.02.2014 09:04 6,7 C 5,0 C 92 % 1004,3 hPa 0,0 l/m 0 min 0 min 0,0 UV-I 35 W/m 12,9 km/h (3 Bft)
21.02.2014 09:06 6,8 C 5,0 C 92 % 1004,3 hPa 0,0 l/m 0 min 0 min 0,0 UV-I 42 W/m 7,7 km/h (2 Bft)
21.02.2014 09:08 6,8 C 5,0 C 92 % 1004,3 hPa 0,0 l/m 0 min 0 min 0,0 UV-I 42 W/m 10,3 km/h (2 Bft)
21.02.2014 09:10 6,8 C 5,0 C 92 % 1004,3 hPa 0,0 l/m 0 min 0 min 0,0 UV-I 37 W/m 10,3 km/h (2 Bft)
21.02.2014 09:12 6,8 C 5,0 C 92 % 1004,3 hPa 0,0 l/m 0 min 0 min 0,0 UV-I 33 W/m 10,3 km/h (2 Bft)
21.02.2014 09:14 6,8 C 4,4 C 92 % 1004,4 hPa 0,0 l/m 0 min 0 min 0,0 UV-I 30 W/m 12,9 km/h (3 Bft)
21.02.2014 09:16 6,8 C 4,4 C 92 % 1004,4 hPa 0,0 l/m 0 min 0 min 0,0 UV-I 35 W/m 10,3 km/h (2 Bft)
21.02.2014 09:18 6,8 C 4,4 C 91 % 1004,3 hPa 0,0 l/m 0 min 0 min 0,0 UV-I 54 W/m 5,1 km/h (1 Bft)
21.02.2014 09:20 6,8 C 4,4 C 91 % 1004,3 hPa 0,0 l/m 0 min 0 min 0,0 UV-I 104 W/m 12,9 km/h (3 Bft)
21.02.2014 09:22 6,7 C 4,4 C 91 % 1004,4 hPa 0,0 l/m 2 min 0 min 0,0 UV-I 171 W/m 10,3 km/h (2 Bft)
21.02.2014 09:24 6,8 C 5,0 C 91 % 1004,4 hPa 0,0 l/m 2 min 0 min 0,0 UV-I 179 W/m 7,7 km/h (2 Bft)
21.02.2014 09:26 6,8 C 5,0 C 91 % 1004,4 hPa 0,0 l/m 2 min 0 min 0,0 UV-I 186 W/m 7,7 km/h (2 Bft)
21.02.2014 09:28 6,8 C 5,0 C 91 % 1004,4 hPa 0,0 l/m 2 min 0 min 0,0 UV-I 195 W/m 7,7 km/h (2 Bft)
21.02.2014 09:30 6,9 C 5,0 C 91 % 1004,4 hPa 0,0 l/m 2 min 0 min 0,0 UV-I 209 W/m 10,3 km/h (2 Bft)
21.02.2014 09:32 7,0 C 5,0 C 95 % 1004,5 hPa 0,0 l/m 2 min 0 min 0,0 UV-I 237 W/m 23,2 km/h (4 Bft)
21.02.2014 09:34 7,1 C 5,0 C 91 % 1004,4 hPa 0,0 l/m 2 min 0 min 0,0 UV-I 232 W/m 12,9 km/h (3 Bft)
21.02.2014 09:36 7,2 C 5,0 C 91 % 1004,4 hPa 0,0 l/m 0 min 0 min 0,0 UV-I 118 W/m 15,4 km/h (3 Bft)
21.02.2014 09:38 7,2 C 5,0 C 90 % 1004,5 hPa 0,0 l/m 0 min 0 min 0,0 UV-I 109 W/m 18,0 km/h (3 Bft)
21.02.2014 09:40 7,3 C 5,0 C 90 % 1004,5 hPa 0,0 l/m 0 min 0 min 0,0 UV-I 116 W/m 10,3 km/h (2 Bft)
21.02.2014 09:42 7,3 C 5,0 C 89 % 1004,4 hPa 0,0 l/m 0 min 0 min 0,0 UV-I 148 W/m 18,0 km/h (3 Bft)
21.02.2014 09:44 7,3 C 5,0 C 89 % 1004,5 hPa 0,0 l/m 2 min 0 min 0,0 UV-I 253 W/m 12,9 km/h (3 Bft)
21.02.2014 09:46 7,4 C 5,0 C 88 % 1004,6 hPa 0,0 l/m 2 min 0 min 0,0 UV-I 220 W/m 7,7 km/h (2 Bft)
21.02.2014 09:48 7,4 C 5,0 C 88 % 1004,5 hPa 0,0 l/m 0 min 0 min 0,0 UV-I 97 W/m 10,3 km/h (2 Bft)
21.02.2014 09:50 7,4 C 5,0 C 88 % 1004,5 hPa 0,0 l/m 0 min 0 min 0,0 UV-I 91 W/m 7,7 km/h (2 Bft)
21.02.2014 09:52 7,4 C 5,0 C 87 % 1004,5 hPa 0,0 l/m 0 min 0 min 0,0 UV-I 84 W/m 23,2 km/h (4 Bft)
21.02.2014 09:54 7,4 C 5,0 C 87 % 1004,5 hPa 0,0 l/m 0 min 0 min 0,0 UV-I 77 W/m 25,7 km/h (4 Bft)
21.02.2014 09:56 7,3 C 5,0 C 87 % 1004,5 hPa 0,0 l/m 0 min 0 min 0,0 UV-I 67 W/m 12,9 km/h (3 Bft)
21.02.2014 09:58 7,3 C 5,0 C 86 % 1004,5 hPa 0,0 l/m 0 min 0 min 0,0 UV-I 58 W/m 18,0 km/h (3 Bft)
21.02.2014 10:00 7,3 C 5,0 C 86 % 1004,5 hPa 0,0 l/m 0 min 0 min 0,0 UV-I 67 W/m 18,0 km/h (3 Bft)
21.02.2014 10:02 7,3 C 5,0 C 86 % 1004,5 hPa 0,0 l/m 2 min 0 min 0,0 UV-I 269 W/m 23,2 km/h (4 Bft)
21.02.2014 10:04 7,3 C 5,0 C 86 % 1004,6 hPa 0,0 l/m 2 min 0 min 0,0 UV-I 269 W/m 23,2 km/h (4 Bft)
21.02.2014 10:06 7,3 C 5,0 C 86 % 1004,6 hPa 0,0 l/m 2 min 0 min 0,0 UV-I 272 W/m 12,9 km/h (3 Bft)
21.02.2014 10:08 7,4 C 5,0 C 85 % 1004,5 hPa 0,0 l/m 2 min 0 min 0,0 UV-I 274 W/m 15,4 km/h (3 Bft)
21.02.2014 10:10 7,5 C 5,0 C 85 % 1004,5 hPa 0,0 l/m 2 min 0 min 0,0 UV-I 278 W/m 12,9 km/h (3 Bft)
21.02.2014 10:12 7,6 C 5,0 C 85 % 1004,6 hPa 0,0 l/m 2 min 0 min 0,0 UV-I 281 W/m 25,7 km/h (4 Bft)
21.02.2014 10:14 7,6 C 5,0 C 85 % 1004,5 hPa 0,0 l/m 2 min 0 min 0,0 UV-I 285 W/m 12,9 km/h (3 Bft)
21.02.2014 10:16 7,7 C 5,0 C 84 % 1004,5 hPa 0,0 l/m 2 min 0 min 0,0 UV-I 287 W/m 20,6 km/h (4 Bft)
21.02.2014 10:18 7,7 C 5,0 C 84 % 1004,5 hPa 0,0 l/m 2 min 0 min 0,0 UV-I 290 W/m 20,6 km/h (4 Bft)
21.02.2014 10:20 7,8 C 5,6 C 83 % 1004,6 hPa 0,0 l/m 2 min 0 min 0,0 UV-I 294 W/m 18,0 km/h (3 Bft)
21.02.2014 10:22 7,9 C 5,6 C 83 % 1004,6 hPa 0,0 l/m 2 min 0 min 0,0 UV-I 299 W/m 15,4 km/h (3 Bft)
21.02.2014 10:24 7,9 C 5,6 C 83 % 1004,6 hPa 0,0 l/m 2 min 0 min 0,0 UV-I 308 W/m 20,6 km/h (4 Bft)
21.02.2014 10:26 8,0 C 5,6 C 83 % 1004,6 hPa 0,0 l/m 2 min 0 min 0,0 UV-I 313 W/m 20,6 km/h (4 Bft)
21.02.2014 10:28 8,1 C 5,6 C 82 % 1004,6 hPa 0,0 l/m 2 min 0 min 0,0 UV-I 318 W/m 20,6 km/h (4 Bft)
21.02.2014 10:30 8,1 C 5,6 C 82 % 1004,6 hPa 0,0 l/m 2 min 0 min 0,0 UV-I 227 W/m 12,9 km/h (3 Bft)
21.02.2014 10:32 8,2 C 5,6 C 82 % 1004,6 hPa 0,0 l/m 2 min 0 min 0,0 UV-I 207 W/m 15,4 km/h (3 Bft)
21.02.2014 10:34 8,3 C 5,6 C 81 % 1004,6 hPa 0,0 l/m 2 min 0 min 0,0 UV-I 336 W/m 20,6 km/h (4 Bft)
21.02.2014 10:36 8,3 C 5,6 C 81 % 1004,6 hPa 0,0 l/m 2 min 0 min 0,0 UV-I 350 W/m 20,6 km/h (4 Bft)
21.02.2014 10:38 8,3 C 5,6 C 80 % 1004,6 hPa 0,0 l/m 2 min 0 min 0,0 UV-I 359 W/m 38,6 km/h (5 Bft)
21.02.2014 10:40 8,4 C 5,6 C 79 % 1004,6 hPa 0,0 l/m 2 min 0 min 0,0 UV-I 359 W/m 33,5 km/h (5 Bft)
21.02.2014 10:42 8,4 C 6,1 C 79 % 1004,6 hPa 0,0 l/m 2 min 0 min 0,0 UV-I 359 W/m 12,9 km/h (3 Bft)
21.02.2014 10:44 8,4 C 6,1 C 79 % 1004,6 hPa 0,0 l/m 2 min 0 min 0,0 UV-I 236 W/m 23,2 km/h (4 Bft)
21.02.2014 10:46 8,5 C 6,1 C 79 % 1004,6 hPa 0,0 l/m 2 min 0 min 0,0 UV-I 369 W/m 10,3 km/h (2 Bft)
21.02.2014 10:48 8,5 C 6,1 C 79 % 1004,7 hPa 0,0 l/m 2 min 0 min 0,0 UV-I 278 W/m 23,2 km/h (4 Bft)
21.02.2014 10:50 8,5 C 6,7 C 79 % 1004,7 hPa 0,0 l/m 2 min 0 min 0,0 UV-I 306 W/m 15,4 km/h (3 Bft)
21.02.2014 10:52 8,5 C 6,1 C 78 % 1004,7 hPa 0,0 l/m 2 min 0 min 0,0 UV-I 294 W/m 41,2 km/h (6 Bft)
21.02.2014 10:54 8,5 C 6,1 C 78 % 1004,7 hPa 0,0 l/m 2 min 0 min 0,0 UV-I 294 W/m 18,0 km/h (3 Bft)
21.02.2014 10:56 8,6 C 6,1 C 78 % 1004,8 hPa 0,0 l/m 0 min 0 min 0,0 UV-I 214 W/m 10,3 km/h (2 Bft)
21.02.2014 10:58 8,6 C 6,1 C 78 % 1004,8 hPa 0,0 l/m 0 min 0 min 0,0 UV-I 146 W/m 38,6 km/h (5 Bft)
21.02.2014 11:00 8,4 C 6,1 C 78 % 1004,8 hPa 0,0 l/m 0 min 0 min 0,0 UV-I 158 W/m 25,7 km/h (4 Bft)
21.02.2014 11:02 8,3 C 5,6 C 78 % 1004,9 hPa 0,0 l/m 0 min 0 min 0,0 UV-I 113 W/m 28,3 km/h (4 Bft)
21.02.2014 11:04 8,2 C 5,6 C 77 % 1004,8 hPa 0,0 l/m 0 min 0 min 0,0 UV-I 181 W/m 15,4 km/h (3 Bft)
21.02.2014 11:06 8,2 C 6,1 C 78 % 1004,8 hPa 0,0 l/m 0 min 0 min 0,0 UV-I 193 W/m 10,3 km/h (2 Bft)
21.02.2014 11:08 8,2 C 6,1 C 79 % 1004,8 hPa 0,0 l/m 0 min 0 min 0,0 UV-I 193 W/m 20,6 km/h (4 Bft)
21.02.2014 11:10 8,2 C 6,1 C 79 % 1004,9 hPa 0,0 l/m 0 min 0 min 0,0 UV-I 216 W/m 20,6 km/h (4 Bft)
21.02.2014 11:12 8,2 C 6,1 C 79 % 1004,9 hPa 0,0 l/m 2 min 0 min 0,0 UV-I 285 W/m 20,6 km/h (4 Bft)
21.02.2014 11:14 8,2 C 6,7 C 79 % 1005,0 hPa 0,0 l/m 2 min 0 min 0,0 UV-I 246 W/m 15,4 km/h (3 Bft)
21.02.2014 11:16 8,2 C 6,1 C 79 % 1005,0 hPa 0,0 l/m 0 min 0 min 0,0 UV-I 216 W/m 15,4 km/h (3 Bft)
21.02.2014 11:18 8,2 C 6,1 C 79 % 1005,1 hPa 0,0 l/m 2 min 0 min 0,0 UV-I 239 W/m 18,0 km/h (3 Bft)
21.02.2014 11:20 8,3 C 6,1 C 79 % 1005,0 hPa 0,0 l/m 2 min 0 min 0,0 UV-I 271 W/m 25,7 km/h (4 Bft)
21.02.2014 11:22 8,3 C 6,7 C 79 % 1005,0 hPa 0,0 l/m 2 min 0 min 0,0 UV-I 350 W/m 7,7 km/h (2 Bft)
21.02.2014 11:24 8,4 C 6,7 C 79 % 1005,1 hPa 0,0 l/m 2 min 0 min 0,0 UV-I 265 W/m 18,0 km/h (3 Bft)
21.02.2014 11:26 8,4 C 6,7 C 79 % 1005,1 hPa 0,0 l/m 0 min 0 min 0,0 UV-I 230 W/m 28,3 km/h (4 Bft)
21.02.2014 11:28 8,4 C 6,7 C 79 % 1005,2 hPa 0,0 l/m 0 min 0 min 0,0 UV-I 223 W/m 23,2 km/h (4 Bft)
21.02.2014 11:30 8,5 C 6,7 C 79 % 1005,2 hPa 0,0 l/m 0 min 0 min 0,0 UV-I 243 W/m 20,6 km/h (4 Bft)
21.02.2014 11:32 8,5 C 6,7 C 79 % 1005,3 hPa 0,0 l/m 2 min 0 min 0,0 UV-I 255 W/m 12,9 km/h (3 Bft)
21.02.2014 11:34 8,5 C 6,7 C 79 % 1005,2 hPa 0,0 l/m 2 min 0 min 0,0 UV-I 279 W/m 15,4 km/h (3 Bft)
21.02.2014 11:36 8,6 C 6,7 C 79 % 1005,3 hPa 0,0 l/m 2 min 0 min 0,0 UV-I 276 W/m 20,6 km/h (4 Bft)
21.02.2014 11:38 8,6 C 7,2 C 79 % 1005,4 hPa 0,0 l/m 0 min 0 min 0,0 UV-I 211 W/m 18,0 km/h (3 Bft)
21.02.2014 11:40 8,6 C 7,2 C 79 % 1005,4 hPa 0,0 l/m 0 min 0 min 0,0 UV-I 206 W/m 12,9 km/h (3 Bft)
21.02.2014 11:42 8,6 C 7,2 C 78 % 1005,4 hPa 0,0 l/m 0 min 0 min 0,0 UV-I 193 W/m 12,9 km/h (3 Bft)
21.02.2014 11:44 8,6 C 6,7 C 78 % 1005,4 hPa 0,0 l/m 0 min 0 min 0,0 UV-I 214 W/m 12,9 km/h (3 Bft)
21.02.2014 11:46 8,5 C 6,7 C 78 % 1005,5 hPa 0,0 l/m 0 min 0 min 0,0 UV-I 211 W/m 15,4 km/h (3 Bft)
21.02.2014 11:48 8,5 C 6,7 C 78 % 1005,5 hPa 0,0 l/m 0 min 0 min 0,0 UV-I 165 W/m 15,4 km/h (3 Bft)
21.02.2014 11:50 8,4 C 6,7 C 78 % 1005,5 hPa 0,0 l/m 0 min 0 min 0,0 UV-I 132 W/m 23,2 km/h (4 Bft)
21.02.2014 11:52 8,4 C 6,7 C 78 % 1005,5 hPa 0,0 l/m 0 min 0 min 0,0 UV-I 130 W/m 10,3 km/h (2 Bft)
21.02.2014 11:54 8,3 C 6,7 C 78 % 1005,5 hPa 0,0 l/m 0 min 0 min 0,0 UV-I 113 W/m 20,6 km/h (4 Bft)
21.02.2014 11:56 8,3 C 6,7 C 78 % 1005,6 hPa 0,0 l/m 0 min 0 min 0,0 UV-I 111 W/m 20,6 km/h (4 Bft)
21.02.2014 11:58 8,3 C 6,7 C 78 % 1005,6 hPa 0,0 l/m 0 min 0 min 0,0 UV-I 111 W/m 18,0 km/h (3 Bft)
21.02.2014 12:00 8,3 C 6,7 C 78 % 1005,5 hPa 0,0 l/m 0 min 0 min 0,0 UV-I 116 W/m 10,3 km/h (2 Bft)
21.02.2014 12:02 8,2 C 6,7 C 78 % 1005,5 hPa 0,0 l/m 0 min 0 min 0,0 UV-I 120 W/m 23,2 km/h (4 Bft)
21.02.2014 12:04 8,2 C 6,7 C 78 % 1005,5 hPa 0,0 l/m 0 min 0 min 0,0 UV-I 123 W/m 23,2 km/h (4 Bft)
21.02.2014 12:06 8,2 C 6,7 C 78 % 1005,5 hPa 0,0 l/m 0 min 0 min 0,0 UV-I 146 W/m 15,4 km/h (3 Bft)
21.02.2014 12:08 8,2 C 7,2 C 77 % 1005,4 hPa 0,0 l/m 0 min 0 min 0,0 UV-I 158 W/m 20,6 km/h (4 Bft)
21.02.2014 12:10 8,2 C 7,2 C 78 % 1005,5 hPa 0,0 l/m 0 min 0 min 0,0 UV-I 134 W/m 10,3 km/h (2 Bft)
21.02.2014 12:12 8,2 C 7,2 C 78 % 1005,5 hPa 0,0 l/m 0 min 0 min 0,0 UV-I 109 W/m 12,9 km/h (3 Bft)
21.02.2014 12:14 8,2 C 7,2 C 78 % 1005,5 hPa 0,0 l/m 0 min 0 min 0,0 UV-I 81 W/m 15,4 km/h (3 Bft)
21.02.2014 12:16 8,1 C 6,7 C 78 % 1005,4 hPa 0,0 l/m 0 min 0 min 0,0 UV-I 84 W/m 28,3 km/h (4 Bft)
21.02.2014 12:18 8,1 C 7,2 C 78 % 1005,4 hPa 0,0 l/m 0 min 0 min 0,0 UV-I 113 W/m 12,9 km/h (3 Bft)
21.02.2014 12:20 8,1 C 7,2 C 78 % 1005,4 hPa 0,0 l/m 0 min 0 min 0,0 UV-I 165 W/m 12,9 km/h (3 Bft)
21.02.2014 12:22 8,1 C 7,2 C 78 % 1005,5 hPa 0,0 l/m 0 min 0 min 0,0 UV-I 211 W/m 12,9 km/h (3 Bft)
21.02.2014 12:24 8,1 C 7,2 C 79 % 1005,3 hPa 0,0 l/m 0 min 0 min 0,0 UV-I 239 W/m 15,4 km/h (3 Bft)
21.02.2014 12:26 8,2 C 7,8 C 79 % 1005,4 hPa 0,0 l/m 0 min 0 min 0,0 UV-I 220 W/m 10,3 km/h (2 Bft)
21.02.2014 12:28 8,3 C 7,8 C 79 % 1005,5 hPa 0,0 l/m 0 min 0 min 0,0 UV-I 186 W/m 28,3 km/h (4 Bft)
21.02.2014 12:30 8,3 C 7,8 C 79 % 1005,4 hPa 0,0 l/m 0 min 0 min 0,0 UV-I 163 W/m 20,6 km/h (4 Bft)
21.02.2014 12:32 8,3 C 7,2 C 78 % 1005,4 hPa 0,0 l/m 0 min 0 min 0,0 UV-I 127 W/m 15,4 km/h (3 Bft)
21.02.2014 12:34 8,3 C 7,2 C 78 % 1005,4 hPa 0,0 l/m 0 min 0 min 0,0 UV-I 116 W/m 12,9 km/h (3 Bft)
21.02.2014 12:36 8,2 C 7,2 C 78 % 1005,5 hPa 0,0 l/m 0 min 0 min 0,0 UV-I 139 W/m 10,3 km/h (2 Bft)
21.02.2014 12:38 8,2 C 7,2 C 79 % 1005,4 hPa 0,0 l/m 0 min 0 min 0,0 UV-I 172 W/m 10,3 km/h (2 Bft)
21.02.2014 12:40 8,3 C 7,8 C 79 % 1005,4 hPa 0,0 l/m 0 min 0 min 0,0 UV-I 209 W/m 12,9 km/h (3 Bft)
21.02.2014 12:42 8,3 C 7,8 C 79 % 1005,4 hPa 0,0 l/m 0 min 0 min 0,0 UV-I 243 W/m 15,4 km/h (3 Bft)
21.02.2014 12:44 8,4 C 7,8 C 79 % 1005,2 hPa 0,0 l/m 2 min 0 min 0,0 UV-I 271 W/m 18,0 km/h (3 Bft)
21.02.2014 12:46 8,5 C 8,3 C 79 % 1005,3 hPa 0,0 l/m 0 min 0 min 0,0 UV-I 229 W/m 12,9 km/h (3 Bft)
21.02.2014 12:48 8,6 C 8,3 C 79 % 1005,2 hPa 0,0 l/m 0 min 0 min 0,0 UV-I 188 W/m 25,7 km/h (4 Bft)
21.02.2014 12:50 8,6 C 7,8 C 78 % 1005,2 hPa 0,0 l/m 0 min 0 min 0,0 UV-I 130 W/m 30,9 km/h (5 Bft)
21.02.2014 12:52 8,5 C 7,8 C 78 % 1005,2 hPa 0,0 l/m 0 min 0 min 0,0 UV-I 91 W/m 25,7 km/h (4 Bft)
21.02.2014 12:54 8,4 C 7,2 C 78 % 1005,2 hPa 0,0 l/m 0 min 0 min 0,0 UV-I 72 W/m 10,3 km/h (2 Bft)
21.02.2014 12:56 8,4 C 7,2 C 79 % 1005,2 hPa 0,0 l/m 0 min 0 min 0,0 UV-I 62 W/m 10,3 km/h (2 Bft)
21.02.2014 12:58 8,3 C 7,2 C 79 % 1005,2 hPa 0,0 l/m 0 min 0 min 0,0 UV-I 63 W/m 18,0 km/h (3 Bft)
21.02.2014 13:00 8,3 C 7,2 C 79 % 1005,3 hPa 0,0 l/m 0 min 0 min 0,0 UV-I 93 W/m 5,1 km/h (1 Bft)
21.02.2014 13:02 8,3 C 7,2 C 79 % 1005,3 hPa 0,0 l/m 0 min 0 min 0,0 UV-I 127 W/m 5,1 km/h (1 Bft)
21.02.2014 13:04 8,3 C 7,2 C 80 % 1005,3 hPa 0,0 l/m 0 min 0 min 0,0 UV-I 134 W/m 2,6 km/h (1 Bft)
21.02.2014 13:06 8,2 C 7,2 C 79 % 1005,3 hPa 0,0 l/m 0 min 0 min 0,0 UV-I 134 W/m 25,7 km/h (4 Bft)
21.02.2014 13:08 8,3 C 7,2 C 78 % 1005,4 hPa 0,0 l/m 2 min 0 min 0,0 UV-I 299 W/m 18,0 km/h (3 Bft)
21.02.2014 13:10 8,3 C 7,8 C 79 % 1005,4 hPa 0,0 l/m 2 min 0 min 0,0 UV-I 287 W/m 7,7 km/h (2 Bft)
21.02.2014 13:12 8,5 C 7,8 C 79 % 1005,5 hPa 0,0 l/m 0 min 0 min 0,0 UV-I 251 W/m 5,1 km/h (1 Bft)
21.02.2014 13:14 8,6 C 8,3 C 78 % 1005,5 hPa 0,0 l/m 0 min 0 min 0,0 UV-I 209 W/m 23,2 km/h (4 Bft)
21.02.2014 13:16 8,6 C 7,8 C 77 % 1005,4 hPa 0,0 l/m 0 min 0 min 0,0 UV-I 200 W/m 18,0 km/h (3 Bft)
21.02.2014 13:18 8,7 C 7,8 C 76 % 1005,6 hPa 0,0 l/m 0 min 0 min 0,0 UV-I 171 W/m 15,4 km/h (3 Bft)
21.02.2014 13:20 8,7 C 7,8 C 77 % 1005,6 hPa 0,0 l/m 0 min 0 min 0,0 UV-I 134 W/m 10,3 km/h (2 Bft)
21.02.2014 13:22 8,7 C 7,8 C 77 % 1005,6 hPa 0,0 l/m 0 min 0 min 0,0 UV-I 116 W/m 12,9 km/h (3 Bft)
21.02.2014 13:24 8,7 C 7,8 C 77 % 1005,6 hPa 0,0 l/m 0 min 0 min 0,0 UV-I 155 W/m 15,4 km/h (3 Bft)
21.02.2014 13:26 8,7 C 7,8 C 77 % 1005,6 hPa 0,0 l/m 0 min 0 min 0,0 UV-I 183 W/m 12,9 km/h (3 Bft)
21.02.2014 13:28 8,7 C 7,8 C 77 % 1005,6 hPa 0,0 l/m 0 min 0 min 0,0 UV-I 162 W/m 20,6 km/h (4 Bft)
21.02.2014 13:30 8,6 C 7,8 C 77 % 1005,6 hPa 0,0 l/m 0 min 0 min 0,0 UV-I 139 W/m 18,0 km/h (3 Bft)
21.02.2014 13:32 8,6 C 7,8 C 76 % 1005,6 hPa 0,0 l/m 0 min 0 min 0,0 UV-I 160 W/m 12,9 km/h (3 Bft)
21.02.2014 13:34 8,6 C 7,8 C 76 % 1005,5 hPa 0,0 l/m 0 min 0 min 0,0 UV-I 200 W/m 25,7 km/h (4 Bft)
21.02.2014 13:36 8,6 C 7,8 C 75 % 1005,5 hPa 0,0 l/m 2 min 0 min 0,0 UV-I 260 W/m 25,7 km/h (4 Bft)
21.02.2014 13:38 8,6 C 7,8 C 75 % 1005,6 hPa 0,0 l/m 0 min 0 min 0,0 UV-I 232 W/m 23,2 km/h (4 Bft)
21.02.2014 13:40 8,7 C 8,3 C 75 % 1005,6 hPa 0,0 l/m 0 min 0 min 0,0 UV-I 199 W/m 12,9 km/h (3 Bft)
21.02.2014 13:42 8,7 C 8,3 C 75 % 1005,6 hPa 0,0 l/m 0 min 0 min 0,0 UV-I 185 W/m 23,2 km/h (4 Bft)
21.02.2014 13:44 8,7 C 7,8 C 75 % 1005,6 hPa 0,0 l/m 0 min 0 min 0,0 UV-I 132 W/m 30,9 km/h (5 Bft)
21.02.2014 13:45 8,7 C 7,8 C 75 % 1005,6 hPa 0,0 l/m 0 min 0 min 0,0 UV-I 192 W/m 30,9 km/h (5 Bft)
21.02.2014 13:50 8,5 C 7,2 C 77 % 1005,6 hPa 0,0 l/m 0 min 2 min 0,0 UV-I 49 W/m 18,0 km/h (3 Bft)
21.02.2014 13:52 8,3 C 6,1 C 78 % 1005,8 hPa 0,0 l/m 0 min 2 min 0,0 UV-I 33 W/m 18,0 km/h (3 Bft)
21.02.2014 13:54 8,1 C 5,6 C 79 % 1005,9 hPa 0,0 l/m 0 min 2 min 0,0 UV-I 25 W/m 25,7 km/h (4 Bft)
21.02.2014 13:56 7,9 C 5,0 C 80 % 1006,0 hPa 0,2 l/m 0 min 2 min 0,0 UV-I 30 W/m 25,7 km/h (4 Bft)
21.02.2014 13:58 7,6 C 5,0 C 82 % 1006,0 hPa 0,0 l/m 0 min 2 min 0,0 UV-I 49 W/m 23,2 km/h (4 Bft)
21.02.2014 14:00 7,2 C 5,0 C 83 % 1006,1 hPa 0,0 l/m 0 min 2 min 0,0 UV-I 67 W/m 15,4 km/h (3 Bft)
21.02.2014 14:02 7,0 C 5,0 C 84 % 1006,1 hPa 0,0 l/m 0 min 2 min 0,0 UV-I 83 W/m 10,3 km/h (2 Bft)
21.02.2014 14:04 6,9 C 5,0 C 86 % 1006,1 hPa 0,0 l/m 0 min 0 min 0,0 UV-I 90 W/m 0,0 km/h (0 Bft)
21.02.2014 14:06 6,8 C 5,0 C 87 % 1006,3 hPa 0,0 l/m 0 min 0 min 0,0 UV-I 178 W/m 20,6 km/h (4 Bft)
21.02.2014 14:08 6,8 C 5,6 C 88 % 1006,2 hPa 0,0 l/m 0 min 0 min 0,5 UV-I 178 W/m 20,6 km/h (4 Bft)
21.02.2014 14:10 6,9 C 5,6 C 88 % 1006,2 hPa 0,0 l/m 2 min 0 min 0,0 UV-I 322 W/m 20,6 km/h (4 Bft)
21.02.2014 14:12 7,1 C 5,6 C 88 % 1006,2 hPa 0,0 l/m 0 min 0 min 0,0 UV-I 125 W/m 15,4 km/h (3 Bft)
21.02.2014 14:14 7,1 C 5,6 C 87 % 1006,3 hPa 0,0 l/m 0 min 0 min 0,0 UV-I 134 W/m 7,7 km/h (2 Bft)
21.02.2014 14:16 7,1 C 5,6 C 86 % 1006,3 hPa 0,0 l/m 0 min 0 min 0,0 UV-I 162 W/m 7,7 km/h (2 Bft)
21.02.2014 14:18 7,2 C 5,6 C 87 % 1006,4 hPa 0,0 l/m 0 min 0 min 0,0 UV-I 153 W/m 15,4 km/h (3 Bft)
21.02.2014 14:20 7,2 C 5,6 C 87 % 1006,4 hPa 0,0 l/m 0 min 0 min 0,0 UV-I 167 W/m 25,7 km/h (4 Bft)
21.02.2014 14:22 7,2 C 5,6 C 86 % 1006,4 hPa 0,0 l/m 0 min 0 min 0,0 UV-I 223 W/m 25,7 km/h (4 Bft)
21.02.2014 14:24 7,3 C 6,1 C 86 % 1006,4 hPa 0,0 l/m 0 min 0 min 0,0 UV-I 223 W/m 20,6 km/h (4 Bft)
21.02.2014 14:26 7,6 C 6,7 C 86 % 1006,5 hPa 0,0 l/m 0 min 0 min 0,5 UV-I 223 W/m 18,0 km/h (3 Bft)
21.02.2014 14:28 7,8 C 6,7 C 86 % 1006,5 hPa 0,0 l/m 0 min 0 min 0,0 UV-I 213 W/m 20,6 km/h (4 Bft)
21.02.2014 14:30 7,9 C 6,7 C 85 % 1006,4 hPa 0,0 l/m 0 min 0 min 0,0 UV-I 216 W/m 20,6 km/h (4 Bft)
21.02.2014 14:32 8,0 C 6,7 C 85 % 1006,5 hPa 0,0 l/m 0 min 0 min 0,0 UV-I 107 W/m 20,6 km/h (4 Bft)
21.02.2014 14:34 7,9 C 6,7 C 84 % 1006,5 hPa 0,0 l/m 0 min 0 min 0,0 UV-I 76 W/m 10,3 km/h (2 Bft)
21.02.2014 14:36 7,9 C 6,1 C 83 % 1006,4 hPa 0,0 l/m 0 min 0 min 0,0 UV-I 81 W/m 18,0 km/h (3 Bft)
21.02.2014 14:38 7,8 C 6,1 C 83 % 1006,4 hPa 0,0 l/m 0 min 0 min 0,0 UV-I 118 W/m 20,6 km/h (4 Bft)
21.02.2014 14:40 7,8 C 6,7 C 84 % 1006,4 hPa 0,0 l/m 0 min 0 min 0,0 UV-I 116 W/m 10,3 km/h (2 Bft)
21.02.2014 14:42 7,8 C 6,7 C 84 % 1006,5 hPa 0,0 l/m 0 min 0 min 0,0 UV-I 123 W/m 15,4 km/h (3 Bft)
21.02.2014 14:44 7,9 C 6,7 C 83 % 1006,5 hPa 0,0 l/m 0 min 0 min 0,0 UV-I 88 W/m 10,3 km/h (2 Bft)
21.02.2014 14:46 7,9 C 6,7 C 83 % 1006,4 hPa 0,0 l/m 0 min 0 min 0,0 UV-I 62 W/m 18,0 km/h (3 Bft)
21.02.2014 14:48 7,9 C 6,7 C 83 % 1006,5 hPa 0,0 l/m 0 min 0 min 0,0 UV-I 118 W/m 0,0 km/h (0 Bft)
21.02.2014 14:50 7,9 C 6,7 C 83 % 1006,5 hPa 0,0 l/m 0 min 0 min 0,0 UV-I 120 W/m 7,7 km/h (2 Bft)
21.02.2014 14:52 8,1 C 6,7 C 83 % 1006,4 hPa 0,0 l/m 2 min 0 min 0,0 UV-I 316 W/m 12,9 km/h (3 Bft)
21.02.2014 14:54 8,3 C 7,2 C 83 % 1006,5 hPa 0,0 l/m 2 min 0 min 0,0 UV-I 420 W/m 7,7 km/h (2 Bft)
21.02.2014 14:56 8,5 C 7,2 C 82 % 1006,4 hPa 0,0 l/m 2 min 0 min 0,0 UV-I 452 W/m 0,0 km/h (0 Bft)
21.02.2014 14:58 8,8 C 7,8 C 81 % 1006,4 hPa 0,0 l/m 2 min 0 min 0,0 UV-I 420 W/m 10,3 km/h (2 Bft)
21.02.2014 15:00 9,1 C 7,8 C 80 % 1006,5 hPa 0,0 l/m 2 min 0 min 0,0 UV-I 355 W/m 15,4 km/h (3 Bft)
21.02.2014 15:02 9,4 C 8,3 C 78 % 1006,4 hPa 0,0 l/m 2 min 0 min 0,0 UV-I 343 W/m 12,9 km/h (3 Bft)
21.02.2014 15:04 9,3 C 7,8 C 76 % 1006,5 hPa 0,0 l/m 0 min 0 min 0,0 UV-I 91 W/m 15,4 km/h (3 Bft)
21.02.2014 15:06 9,2 C 7,8 C 76 % 1006,5 hPa 0,0 l/m 0 min 0 min 0,0 UV-I 118 W/m 12,9 km/h (3 Bft)
21.02.2014 15:08 9,0 C 7,8 C 76 % 1006,5 hPa 0,0 l/m 0 min 0 min 0,0 UV-I 128 W/m 12,9 km/h (3 Bft)
21.02.2014 15:10 9,0 C 7,8 C 77 % 1006,5 hPa 0,0 l/m 2 min 0 min 0,0 UV-I 497 W/m 23,2 km/h (4 Bft)
21.02.2014 15:12 9,2 C 8,9 C 78 % 1006,5 hPa 0,0 l/m 2 min 0 min 0,0 UV-I 512 W/m 12,9 km/h (3 Bft)
21.02.2014 15:14 9,5 C 8,9 C 77 % 1006,6 hPa 0,0 l/m 2 min 0 min 0,0 UV-I 482 W/m 25,7 km/h (4 Bft)
21.02.2014 15:16 9,6 C 8,9 C 76 % 1006,6 hPa 0,0 l/m 2 min 0 min 0,0 UV-I 410 W/m 12,9 km/h (3 Bft)
21.02.2014 15:18 9,7 C 8,9 C 75 % 1006,6 hPa 0,0 l/m 2 min 0 min 0,0 UV-I 410 W/m 15,4 km/h (3 Bft)
21.02.2014 15:20 9,7 C 8,9 C 75 % 1006,6 hPa 0,0 l/m 2 min 0 min 0,0 UV-I 385 W/m 7,7 km/h (2 Bft)
21.02.2014 15:22 9,7 C 8,9 C 75 % 1006,5 hPa 0,0 l/m 2 min 0 min 0,0 UV-I 387 W/m 20,6 km/h (4 Bft)
21.02.2014 15:24 9,7 C 8,9 C 75 % 1006,6 hPa 0,0 l/m 2 min 0 min 0,0 UV-I 374 W/m 10,3 km/h (2 Bft)
21.02.2014 15:26 9,8 C 8,9 C 75 % 1006,6 hPa 0,0 l/m 2 min 0 min 0,0 UV-I 359 W/m 12,9 km/h (3 Bft)
21.02.2014 15:28 9,8 C 8,9 C 75 % 1006,7 hPa 0,0 l/m 2 min 0 min 0,0 UV-I 334 W/m 10,3 km/h (2 Bft)
21.02.2014 15:30 9,7 C 8,9 C 75 % 1006,6 hPa 0,0 l/m 2 min 0 min 0,0 UV-I 332 W/m 10,3 km/h (2 Bft)
21.02.2014 15:32 9,8 C 8,9 C 76 % 1006,7 hPa 0,0 l/m 2 min 0 min 0,0 UV-I 315 W/m 15,4 km/h (3 Bft)
21.02.2014 15:34 9,8 C 8,3 C 75 % 1006,7 hPa 0,0 l/m 2 min 0 min 0,0 UV-I 309 W/m 12,9 km/h (3 Bft)
21.02.2014 15:36 9,7 C 8,3 C 75 % 1006,7 hPa 0,0 l/m 2 min 0 min 0,0 UV-I 325 W/m 20,6 km/h (4 Bft)
21.02.2014 15:38 9,5 C 8,3 C 74 % 1006,8 hPa 0,0 l/m 2 min 0 min 0,0 UV-I 330 W/m 23,2 km/h (4 Bft)
21.02.2014 15:40 9,4 C 8,3 C 74 % 1006,8 hPa 0,0 l/m 2 min 0 min 0,0 UV-I 292 W/m 18,0 km/h (3 Bft)
21.02.2014 15:42 9,4 C 8,3 C 74 % 1006,8 hPa 0,0 l/m 2 min 0 min 0,0 UV-I 225 W/m 12,9 km/h (3 Bft)
21.02.2014 15:44 9,3 C 7,8 C 74 % 1006,8 hPa 0,0 l/m 0 min 0 min 0,0 UV-I 83 W/m 12,9 km/h (3 Bft)
21.02.2014 15:46 9,2 C 7,8 C 74 % 1006,8 hPa 0,0 l/m 0 min 0 min 0,0 UV-I 137 W/m 15,4 km/h (3 Bft)
21.02.2014 15:48 9,1 C 7,8 C 75 % 1006,8 hPa 0,0 l/m 0 min 0 min 0,0 UV-I 90 W/m 12,9 km/h (3 Bft)
21.02.2014 15:50 9,0 C 7,8 C 76 % 1006,9 hPa 0,0 l/m 0 min 0 min 0,0 UV-I 93 W/m 10,3 km/h (2 Bft)
21.02.2014 15:52 8,9 C 7,8 C 75 % 1006,8 hPa 0,0 l/m 0 min 0 min 0,0 UV-I 62 W/m 23,2 km/h (4 Bft)
21.02.2014 15:54 8,8 C 7,2 C 75 % 1006,9 hPa 0,0 l/m 0 min 0 min 0,0 UV-I 62 W/m 20,6 km/h (4 Bft)
21.02.2014 15:56 8,7 C 7,2 C 75 % 1006,8 hPa 0,0 l/m 0 min 0 min 0,0 UV-I 49 W/m 10,3 km/h (2 Bft)
21.02.2014 15:58 8,7 C 7,2 C 75 % 1006,8 hPa 0,0 l/m 0 min 0 min 0,0 UV-I 46 W/m 18,0 km/h (3 Bft)
21.02.2014 16:00 8,6 C 7,2 C 75 % 1006,8 hPa 0,0 l/m 0 min 0 min 0,0 UV-I 146 W/m 5,1 km/h (1 Bft)
21.02.2014 16:02 8,5 C 7,2 C 76 % 1006,9 hPa 0,0 l/m 0 min 0 min 0,0 UV-I 63 W/m 12,9 km/h (3 Bft)
21.02.2014 16:04 8,4 C 7,2 C 76 % 1006,9 hPa 0,0 l/m 0 min 0 min 0,0 UV-I 67 W/m 10,3 km/h (2 Bft)
21.02.2014 16:06 8,4 C 7,2 C 76 % 1006,9 hPa 0,0 l/m 0 min 0 min 0,0 UV-I 60 W/m 12,9 km/h (3 Bft)
21.02.2014 16:08 8,5 C 7,2 C 77 % 1006,9 hPa 0,0 l/m 0 min 0 min 0,0 UV-I 60 W/m 12,9 km/h (3 Bft)
21.02.2014 16:10 8,6 C 7,2 C 77 % 1006,9 hPa 0,0 l/m 2 min 0 min 0,0 UV-I 221 W/m 7,7 km/h (2 Bft)
21.02.2014 16:12 8,8 C 7,2 C 77 % 1006,9 hPa 0,0 l/m 2 min 0 min 0,0 UV-I 214 W/m 5,1 km/h (1 Bft)
21.02.2014 16:14 8,8 C 7,2 C 76 % 1007,0 hPa 0,0 l/m 2 min 0 min 0,0 UV-I 213 W/m 12,9 km/h (3 Bft)
21.02.2014 16:16 8,9 C 7,2 C 76 % 1006,9 hPa 0,0 l/m 2 min 0 min 0,0 UV-I 202 W/m 5,1 km/h (1 Bft)
21.02.2014 16:18 8,9 C 7,2 C 75 % 1007,0 hPa 0,0 l/m 2 min 0 min 0,0 UV-I 200 W/m 18,0 km/h (3 Bft)
21.02.2014 16:20 8,9 C 7,2 C 75 % 1007,0 hPa 0,0 l/m 2 min 0 min 0,0 UV-I 193 W/m 7,7 km/h (2 Bft)
21.02.2014 16:22 8,9 C 7,2 C 75 % 1007,0 hPa 0,0 l/m 2 min 0 min 0,0 UV-I 185 W/m 7,7 km/h (2 Bft)
21.02.2014 16:24 8,9 C 7,2 C 75 % 1007,0 hPa 0,0 l/m 2 min 0 min 0,0 UV-I 185 W/m 15,4 km/h (3 Bft)
21.02.2014 16:26 8,8 C 7,2 C 74 % 1007,1 hPa 0,0 l/m 2 min 0 min 0,0 UV-I 183 W/m 15,4 km/h (3 Bft)
21.02.2014 16:28 8,8 C 7,2 C 74 % 1007,1 hPa 0,0 l/m 2 min 0 min 0,0 UV-I 178 W/m 7,7 km/h (2 Bft)
21.02.2014 16:30 8,8 C 7,2 C 75 % 1007,1 hPa 0,0 l/m 2 min 0 min 0,0 UV-I 174 W/m 10,3 km/h (2 Bft)
21.02.2014 16:32 8,8 C 7,2 C 75 % 1007,1 hPa 0,0 l/m 2 min 0 min 0,0 UV-I 163 W/m 10,3 km/h (2 Bft)
21.02.2014 16:34 8,8 C 7,2 C 74 % 1007,1 hPa 0,0 l/m 2 min 0 min 0,0 UV-I 158 W/m 12,9 km/h (3 Bft)
21.02.2014 16:36 8,8 C 7,2 C 73 % 1007,1 hPa 0,0 l/m 2 min 0 min 0,0 UV-I 156 W/m 10,3 km/h (2 Bft)
21.02.2014 16:38 8,8 C 7,2 C 73 % 1007,1 hPa 0,0 l/m 2 min 0 min 0,0 UV-I 148 W/m 18,0 km/h (3 Bft)
21.02.2014 16:40 8,9 C 7,2 C 73 % 1007,2 hPa 0,0 l/m 2 min 0 min 0,0 UV-I 142 W/m 15,4 km/h (3 Bft)
21.02.2014 16:42 8,9 C 7,2 C 73 % 1007,2 hPa 0,0 l/m 2 min 0 min 0,0 UV-I 139 W/m 7,7 km/h (2 Bft)
21.02.2014 16:44 8,9 C 7,2 C 71 % 1007,2 hPa 0,0 l/m 0 min 0 min 0,0 UV-I 74 W/m 10,3 km/h (2 Bft)
21.02.2014 16:46 8,9 C 7,2 C 70 % 1007,2 hPa 0,0 l/m 0 min 0 min 0,0 UV-I 49 W/m 18,0 km/h (3 Bft)
21.02.2014 16:48 8,9 C 7,2 C 69 % 1007,2 hPa 0,0 l/m 0 min 0 min 0,0 UV-I 40 W/m 10,3 km/h (2 Bft)
21.02.2014 16:50 8,8 C 6,7 C 69 % 1007,2 hPa 0,0 l/m 0 min 0 min 0,0 UV-I 39 W/m 12,9 km/h (3 Bft)
21.02.2014 16:52 8,8 C 7,2 C 69 % 1007,2 hPa 0,0 l/m 0 min 0 min 0,0 UV-I 40 W/m 10,3 km/h (2 Bft)
21.02.2014 16:54 8,8 C 6,7 C 69 % 1007,2 hPa 0,0 l/m 0 min 0 min 0,0 UV-I 39 W/m 2,6 km/h (1 Bft)
21.02.2014 16:56 8,8 C 6,7 C 69 % 1007,1 hPa 0,0 l/m 0 min 0 min 0,0 UV-I 30 W/m 5,1 km/h (1 Bft)
21.02.2014 16:58 8,7 C 6,7 C 69 % 1007,2 hPa 0,0 l/m 0 min 0 min 0,0 UV-I 26 W/m 12,9 km/h (3 Bft)
21.02.2014 17:00 8,7 C 6,7 C 69 % 1007,2 hPa 0,0 l/m 0 min 0 min 0,0 UV-I 25 W/m 12,9 km/h (3 Bft)
21.02.2014 17:02 8,6 C 6,7 C 69 % 1007,2 hPa 0,0 l/m 0 min 0 min 0,0 UV-I 23 W/m 7,7 km/h (2 Bft)
21.02.2014 17:04 8,6 C 6,7 C 69 % 1007,2 hPa 0,0 l/m 0 min 0 min 0,0 UV-I 23 W/m 10,3 km/h (2 Bft)
21.02.2014 17:06 8,5 C 6,7 C 69 % 1007,2 hPa 0,0 l/m 0 min 0 min 0,0 UV-I 26 W/m 12,9 km/h (3 Bft)
21.02.2014 17:08 8,4 C 6,7 C 69 % 1007,2 hPa 0,0 l/m 0 min 0 min 0,0 UV-I 30 W/m 2,6 km/h (1 Bft)
21.02.2014 17:10 8,4 C 6,7 C 70 % 1007,3 hPa 0,0 l/m 0 min 0 min 0,0 UV-I 30 W/m 7,7 km/h (2 Bft)
21.02.2014 17:12 8,4 C 6,7 C 70 % 1007,3 hPa 0,0 l/m 0 min 0 min 0,0 UV-I 30 W/m 15,4 km/h (3 Bft)
21.02.2014 17:14 8,4 C 6,7 C 70 % 1007,3 hPa 0,0 l/m 0 min 0 min 0,0 UV-I 23 W/m 5,1 km/h (1 Bft)
21.02.2014 17:16 8,3 C 6,7 C 70 % 1007,3 hPa 0,0 l/m 0 min 0 min 0,0 UV-I 18 W/m 7,7 km/h (2 Bft)
21.02.2014 17:18 8,3 C 6,1 C 71 % 1007,2 hPa 0,0 l/m 0 min 0 min 0,0 UV-I 16 W/m 5,1 km/h (1 Bft)
21.02.2014 17:20 8,2 C 6,1 C 71 % 1007,3 hPa 0,0 l/m 0 min 0 min 0,0 UV-I 14 W/m 2,6 km/h (1 Bft)
21.02.2014 17:22 8,2 C 6,1 C 71 % 1007,3 hPa 0,0 l/m 0 min 0 min 0,0 UV-I 14 W/m 0,0 km/h (0 Bft)
21.02.2014 17:24 8,1 C 6,1 C 71 % 1007,4 hPa 0,0 l/m 0 min 0 min 0,0 UV-I 12 W/m 12,9 km/h (3 Bft)
21.02.2014 17:26 8,1 C 6,1 C 72 % 1007,4 hPa 0,0 l/m 0 min 0 min 0,0 UV-I 12 W/m 7,7 km/h (2 Bft)
21.02.2014 17:28 8,0 C 5,6 C 72 % 1007,5 hPa 0,0 l/m 0 min 0 min 0,0 UV-I 12 W/m 7,7 km/h (2 Bft)
21.02.2014 17:30 7,9 C 5,6 C 72 % 1007,4 hPa 0,0 l/m 0 min 0 min 0,0 UV-I 11 W/m 7,7 km/h (2 Bft)
21.02.2014 17:32 7,9 C 5,6 C 72 % 1007,5 hPa 0,0 l/m 0 min 0 min 0,0 UV-I 11 W/m 7,7 km/h (2 Bft)
21.02.2014 17:34 7,9 C 5,6 C 72 % 1007,5 hPa 0,0 l/m 0 min 0 min 0,0 UV-I 9 W/m 2,6 km/h (1 Bft)
21.02.2014 17:36 7,9 C 5,6 C 72 % 1007,5 hPa 0,0 l/m 0 min 0 min 0,0 UV-I 9 W/m 10,3 km/h (2 Bft)
21.02.2014 17:38 7,8 C 5,6 C 72 % 1007,6 hPa 0,0 l/m 0 min 0 min 0,0 UV-I 9 W/m 0,0 km/h (0 Bft)
21.02.2014 17:40 7,8 C 6,1 C 72 % 1007,6 hPa 0,0 l/m 0 min 0 min 0,0 UV-I 9 W/m 12,9 km/h (3 Bft)
21.02.2014 17:42 7,8 C 6,1 C 72 % 1007,7 hPa 0,0 l/m 0 min 0 min 0,0 UV-I 11 W/m 5,1 km/h (1 Bft)
21.02.2014 17:44 7,8 C 6,1 C 72 % 1007,7 hPa 0,0 l/m 0 min 0 min 0,0 UV-I 11 W/m 2,6 km/h (1 Bft)
21.02.2014 17:46 7,9 C 6,1 C 71 % 1007,7 hPa 0,0 l/m 0 min 0 min 0,0 UV-I 9 W/m 7,7 km/h (2 Bft)
21.02.2014 17:48 7,9 C 6,1 C 72 % 1007,7 hPa 0,0 l/m 0 min 0 min 0,0 UV-I 7 W/m 10,3 km/h (2 Bft)
21.02.2014 17:50 7,8 C 6,1 C 71 % 1007,8 hPa 0,0 l/m 0 min 0 min 0,0 UV-I 7 W/m 7,7 km/h (2 Bft)
21.02.2014 17:52 7,9 C 6,1 C 71 % 1007,8 hPa 0,0 l/m 0 min 0 min 0,0 UV-I 7 W/m 12,9 km/h (3 Bft)
21.02.2014 17:54 7,9 C 6,1 C 71 % 1007,8 hPa 0,0 l/m 0 min 0 min 0,0 UV-I 5 W/m 18,0 km/h (3 Bft)
21.02.2014 17:56 7,9 C 6,1 C 71 % 1007,9 hPa 0,0 l/m 0 min 0 min 0,0 UV-I 5 W/m 5,1 km/h (1 Bft)
21.02.2014 17:58 7,9 C 6,1 C 71 % 1007,9 hPa 0,0 l/m 0 min 0 min 0,0 UV-I 5 W/m 0,0 km/h (0 Bft)
21.02.2014 18:00 7,9 C 6,1 C 71 % 1008,0 hPa 0,0 l/m 0 min 0 min 0,0 UV-I 5 W/m 10,3 km/h (2 Bft)
21.02.2014 18:02 7,9 C 6,1 C 71 % 1008,1 hPa 0,0 l/m 0 min 0 min 0,0 UV-I 0 W/m 0,0 km/h (0 Bft)
21.02.2014 18:04 7,9 C 6,1 C 71 % 1008,2 hPa 0,0 l/m 0 min 0 min 0,0 UV-I 0 W/m 20,6 km/h (4 Bft)
21.02.2014 18:06 7,9 C 6,1 C 72 % 1008,2 hPa 0,0 l/m 0 min 0 min 0,0 UV-I 0 W/m 15,4 km/h (3 Bft)
21.02.2014 18:08 7,9 C 6,1 C 72 % 1008,3 hPa 0,0 l/m 0 min 0 min 0,0 UV-I 0 W/m 20,6 km/h (4 Bft)
21.02.2014 18:10 7,8 C 6,1 C 72 % 1008,3 hPa 0,0 l/m 0 min 0 min 0,0 UV-I 0 W/m 18,0 km/h (3 Bft)
21.02.2014 18:12 7,8 C 6,1 C 72 % 1008,4 hPa 0,0 l/m 0 min 0 min 0,0 UV-I 0 W/m 15,4 km/h (3 Bft)
21.02.2014 18:14 7,7 C 5,6 C 73 % 1008,4 hPa 0,0 l/m 0 min 0 min 0,0 UV-I 0 W/m 15,4 km/h (3 Bft)
21.02.2014 18:16 7,6 C 5,6 C 74 % 1008,4 hPa 0,0 l/m 0 min 0 min 0,0 UV-I 0 W/m 7,7 km/h (2 Bft)
21.02.2014 18:18 7,5 C 5,6 C 74 % 1008,4 hPa 0,0 l/m 0 min 0 min 0,0 UV-I 0 W/m 18,0 km/h (3 Bft)
21.02.2014 18:20 7,4 C 5,6 C 74 % 1008,4 hPa 0,0 l/m 0 min 0 min 0,0 UV-I 0 W/m 12,9 km/h (3 Bft)
21.02.2014 18:22 7,2 C 5,0 C 75 % 1008,5 hPa 0,0 l/m 0 min 0 min 0,0 UV-I 0 W/m 0,0 km/h (0 Bft)
21.02.2014 18:24 7,1 C 5,0 C 76 % 1008,5 hPa 0,0 l/m 0 min 0 min 0,0 UV-I 0 W/m 0,0 km/h (0 Bft)
21.02.2014 18:26 6,9 C 5,0 C 76 % 1008,5 hPa 0,0 l/m 0 min 0 min 0,0 UV-I 0 W/m 5,1 km/h (1 Bft)
21.02.2014 18:28 6,8 C 5,0 C 77 % 1008,5 hPa 0,0 l/m 0 min 0 min 0,0 UV-I 0 W/m 12,9 km/h (3 Bft)
21.02.2014 18:30 6,7 C 5,0 C 77 % 1008,5 hPa 0,0 l/m 0 min 0 min 0,0 UV-I 0 W/m 12,9 km/h (3 Bft)
21.02.2014 18:32 6,6 C 4,4 C 77 % 1008,6 hPa 0,0 l/m 0 min 0 min 0,0 UV-I 0 W/m 10,3 km/h (2 Bft)
21.02.2014 18:34 6,5 C 4,4 C 78 % 1008,6 hPa 0,0 l/m 0 min 0 min 0,0 UV-I 0 W/m 7,7 km/h (2 Bft)
21.02.2014 18:36 6,4 C 4,4 C 78 % 1008,6 hPa 0,0 l/m 0 min 0 min 0,0 UV-I 0 W/m 5,1 km/h (1 Bft)
21.02.2014 18:38 6,3 C 4,4 C 78 % 1008,6 hPa 0,0 l/m 0 min 0 min 0,0 UV-I 0 W/m 10,3 km/h (2 Bft)
21.02.2014 18:40 6,2 C 4,4 C 79 % 1008,7 hPa 0,0 l/m 0 min 0 min 0,0 UV-I 0 W/m 7,7 km/h (2 Bft)
21.02.2014 18:42 6,1 C 4,4 C 79 % 1008,6 hPa 0,0 l/m 0 min 0 min 0,0 UV-I 0 W/m 12,9 km/h (3 Bft)
21.02.2014 18:44 6,1 C 4,4 C 79 % 1008,6 hPa 0,0 l/m 0 min 0 min 0,0 UV-I 0 W/m 7,7 km/h (2 Bft)
21.02.2014 18:46 6,0 C 4,4 C 79 % 1008,6 hPa 0,0 l/m 0 min 0 min 0,0 UV-I 0 W/m 2,6 km/h (1 Bft)
21.02.2014 18:48 5,9 C 3,9 C 79 % 1008,6 hPa 0,0 l/m 0 min 0 min 0,0 UV-I 0 W/m 0,0 km/h (0 Bft)
21.02.2014 18:50 5,9 C 3,9 C 80 % 1008,7 hPa 0,0 l/m 0 min 0 min 0,0 UV-I 0 W/m 5,1 km/h (1 Bft)
21.02.2014 18:52 5,9 C 3,9 C 80 % 1008,7 hPa 0,0 l/m 0 min 0 min 0,0 UV-I 0 W/m 12,9 km/h (3 Bft)
21.02.2014 18:54 5,9 C 4,4 C 79 % 1008,7 hPa 0,0 l/m 0 min 0 min 0,0 UV-I 0 W/m 18,0 km/h (3 Bft)
21.02.2014 18:56 5,9 C 4,4 C 79 % 1008,8 hPa 0,0 l/m 0 min 0 min 0,0 UV-I 0 W/m 10,3 km/h (2 Bft)
21.02.2014 18:58 5,9 C 4,4 C 79 % 1008,7 hPa 0,0 l/m 0 min 0 min 0,0 UV-I 0 W/m 18,0 km/h (3 Bft)
21.02.2014 19:00 5,9 C 4,4 C 79 % 1008,7 hPa 0,0 l/m 0 min 0 min 0,0 UV-I 0 W/m 18,0 km/h (3 Bft)
21.02.2014 19:02 5,9 C 4,4 C 79 % 1008,8 hPa 0,0 l/m 0 min 0 min 0,0 UV-I 0 W/m 23,2 km/h (4 Bft)
21.02.2014 19:04 5,9 C 4,4 C 79 % 1008,8 hPa 0,0 l/m 0 min 0 min 0,0 UV-I 0 W/m 15,4 km/h (3 Bft)
21.02.2014 19:06 6,0 C 4,4 C 79 % 1008,8 hPa 0,0 l/m 0 min 0 min 0,0 UV-I 0 W/m 12,9 km/h (3 Bft)
21.02.2014 19:08 6,0 C 4,4 C 79 % 1008,8 hPa 0,0 l/m 0 min 0 min 0,0 UV-I 0 W/m 2,6 km/h (1 Bft)
21.02.2014 19:10 5,9 C 4,4 C 79 % 1008,8 hPa 0,0 l/m 0 min 0 min 0,0 UV-I 0 W/m 18,0 km/h (3 Bft)
21.02.2014 19:12 6,0 C 4,4 C 79 % 1008,9 hPa 0,0 l/m 0 min 0 min 0,0 UV-I 0 W/m 2,6 km/h (1 Bft)
21.02.2014 19:14 5,9 C 3,9 C 79 % 1008,8 hPa 0,0 l/m 0 min 0 min 0,0 UV-I 0 W/m 0,0 km/h (0 Bft)
21.02.2014 19:16 5,9 C 3,9 C 79 % 1008,9 hPa 0,0 l/m 0 min 0 min 0,0 UV-I 0 W/m 10,3 km/h (2 Bft)
21.02.2014 19:18 5,9 C 3,9 C 80 % 1008,8 hPa 0,0 l/m 0 min 0 min 0,0 UV-I 0 W/m 18,0 km/h (3 Bft)
21.02.2014 19:20 5,9 C 3,9 C 80 % 1008,9 hPa 0,0 l/m 0 min 0 min 0,0 UV-I 0 W/m 7,7 km/h (2 Bft)
21.02.2014 19:22 5,9 C 3,9 C 80 % 1008,9 hPa 0,0 l/m 0 min 0 min 0,0 UV-I 0 W/m 15,4 km/h (3 Bft)
21.02.2014 19:24 5,8 C 3,9 C 80 % 1008,9 hPa 0,0 l/m 0 min 0 min 0,0 UV-I 0 W/m 12,9 km/h (3 Bft)
21.02.2014 19:26 5,8 C 3,9 C 80 % 1009,0 hPa 0,0 l/m 0 min 0 min 0,0 UV-I 0 W/m 12,9 km/h (3 Bft)
21.02.2014 19:28 5,8 C 3,9 C 80 % 1008,9 hPa 0,0 l/m 0 min 0 min 0,0 UV-I 0 W/m 7,7 km/h (2 Bft)
21.02.2014 19:30 5,8 C 3,9 C 81 % 1008,9 hPa 0,0 l/m 0 min 0 min 0,0 UV-I 0 W/m 12,9 km/h (3 Bft)
21.02.2014 19:32 5,8 C 3,9 C 81 % 1009,0 hPa 0,0 l/m 0 min 0 min 0,0 UV-I 0 W/m 20,6 km/h (4 Bft)
21.02.2014 19:34 5,8 C 4,4 C 81 % 1008,9 hPa 0,0 l/m 0 min 0 min 0,0 UV-I 0 W/m 18,0 km/h (3 Bft)
21.02.2014 19:36 5,8 C 4,4 C 81 % 1008,9 hPa 0,0 l/m 0 min 0 min 0,0 UV-I 0 W/m 5,1 km/h (1 Bft)
21.02.2014 19:38 5,8 C 4,4 C 81 % 1008,9 hPa 0,0 l/m 0 min 0 min 0,0 UV-I 0 W/m 12,9 km/h (3 Bft)
21.02.2014 19:40 5,8 C 3,9 C 81 % 1008,9 hPa 0,0 l/m 0 min 0 min 0,0 UV-I 0 W/m 7,7 km/h (2 Bft)
21.02.2014 19:42 5,8 C 3,9 C 81 % 1008,9 hPa 0,0 l/m 0 min 0 min 0,0 UV-I 0 W/m 10,3 km/h (2 Bft)
21.02.2014 19:44 5,8 C 3,9 C 81 % 1008,9 hPa 0,0 l/m 0 min 0 min 0,0 UV-I 0 W/m 10,3 km/h (2 Bft)
21.02.2014 19:46 5,8 C 4,4 C 81 % 1009,0 hPa 0,0 l/m 0 min 0 min 0,0 UV-I 0 W/m 10,3 km/h (2 Bft)
21.02.2014 19:48 5,8 C 3,9 C 81 % 1009,0 hPa 0,0 l/m 0 min 0 min 0,0 UV-I 0 W/m 7,7 km/h (2 Bft)
21.02.2014 19:50 5,9 C 4,4 C 81 % 1009,0 hPa 0,0 l/m 0 min 0 min 0,0 UV-I 0 W/m 7,7 km/h (2 Bft)
21.02.2014 19:52 5,9 C 3,9 C 81 % 1009,0 hPa 0,0 l/m 0 min 0 min 0,0 UV-I 0 W/m 7,7 km/h (2 Bft)
21.02.2014 19:54 5,9 C 3,9 C 80 % 1009,0 hPa 0,0 l/m 0 min 0 min 0,0 UV-I 0 W/m 5,1 km/h (1 Bft)
21.02.2014 19:56 5,8 C 3,9 C 80 % 1009,1 hPa 0,0 l/m 0 min 0 min 0,0 UV-I 0 W/m 10,3 km/h (2 Bft)
21.02.2014 19:58 5,8 C 3,9 C 80 % 1009,0 hPa 0,0 l/m 0 min 0 min 0,0 UV-I 0 W/m 0,0 km/h (0 Bft)
21.02.2014 20:00 5,8 C 3,9 C 80 % 1009,1 hPa 0,0 l/m 0 min 0 min 0,0 UV-I 0 W/m 12,9 km/h (3 Bft)
21.02.2014 20:02 5,8 C 3,9 C 81 % 1009,1 hPa 0,0 l/m 0 min 0 min 0,0 UV-I 0 W/m 12,9 km/h (3 Bft)
21.02.2014 20:04 5,7 C 3,9 C 81 % 1009,1 hPa 0,0 l/m 0 min 0 min 0,0 UV-I 0 W/m 10,3 km/h (2 Bft)
21.02.2014 20:06 5,7 C 3,9 C 81 % 1009,1 hPa 0,0 l/m 0 min 0 min 0,0 UV-I 0 W/m 5,1 km/h (1 Bft)
21.02.2014 20:08 5,7 C 3,9 C 81 % 1009,1 hPa 0,0 l/m 0 min 0 min 0,0 UV-I 0 W/m 12,9 km/h (3 Bft)
21.02.2014 20:10 5,7 C 3,9 C 81 % 1009,1 hPa 0,0 l/m 0 min 0 min 0,0 UV-I 0 W/m 2,6 km/h (1 Bft)
21.02.2014 20:12 5,6 C 3,9 C 81 % 1009,1 hPa 0,0 l/m 0 min 0 min 0,0 UV-I 0 W/m 0,0 km/h (0 Bft)
21.02.2014 20:14 5,5 C 3,9 C 82 % 1009,2 hPa 0,0 l/m 0 min 0 min 0,0 UV-I 0 W/m 10,3 km/h (2 Bft)
21.02.2014 20:16 5,5 C 3,9 C 82 % 1009,2 hPa 0,0 l/m 0 min 0 min 0,0 UV-I 0 W/m 7,7 km/h (2 Bft)
21.02.2014 20:18 5,5 C 3,9 C 82 % 1009,1 hPa 0,0 l/m 0 min 0 min 0,0 UV-I 0 W/m 7,7 km/h (2 Bft)
21.02.2014 20:20 5,5 C 3,9 C 82 % 1009,1 hPa 0,0 l/m 0 min 0 min 0,0 UV-I 0 W/m 5,1 km/h (1 Bft)
21.02.2014 20:22 5,4 C 3,9 C 82 % 1009,1 hPa 0,0 l/m 0 min 0 min 0,0 UV-I 0 W/m 7,7 km/h (2 Bft)
21.02.2014 20:24 5,4 C 3,9 C 82 % 1009,1 hPa 0,0 l/m 0 min 0 min 0,0 UV-I 0 W/m 7,7 km/h (2 Bft)
21.02.2014 20:26 5,4 C 3,3 C 82 % 1009,1 hPa 0,0 l/m 0 min 0 min 0,0 UV-I 0 W/m 7,7 km/h (2 Bft)
21.02.2014 20:28 5,3 C 3,3 C 82 % 1009,1 hPa 0,0 l/m 0 min 0 min 0,0 UV-I 0 W/m 5,1 km/h (1 Bft)
21.02.2014 20:30 5,3 C 3,3 C 83 % 1009,2 hPa 0,0 l/m 0 min 0 min 0,0 UV-I 0 W/m 2,6 km/h (1 Bft)
21.02.2014 20:32 5,2 C 3,3 C 83 % 1009,2 hPa 0,0 l/m 0 min 0 min 0,0 UV-I 0 W/m 0,0 km/h (0 Bft)
21.02.2014 20:34 5,2 C 3,3 C 83 % 1009,2 hPa 0,0 l/m 0 min 0 min 0,0 UV-I 0 W/m 0,0 km/h (0 Bft)
21.02.2014 20:36 5,1 C 3,3 C 83 % 1009,3 hPa 0,0 l/m 0 min 0 min 0,0 UV-I 0 W/m 0,0 km/h (0 Bft)
21.02.2014 20:38 5,0 C 3,3 C 83 % 1009,3 hPa 0,0 l/m 0 min 0 min 0,0 UV-I 0 W/m 7,7 km/h (2 Bft)
21.02.2014 20:40 4,9 C 3,3 C 84 % 1009,3 hPa 0,0 l/m 0 min 0 min 0,0 UV-I 0 W/m 7,7 km/h (2 Bft)
21.02.2014 20:42 4,9 C 2,8 C 84 % 1009,3 hPa 0,0 l/m 0 min 0 min 0,0 UV-I 0 W/m 2,6 km/h (1 Bft)
21.02.2014 20:44 4,9 C 2,8 C 84 % 1009,3 hPa 0,0 l/m 0 min 0 min 0,0 UV-I 0 W/m 0,0 km/h (0 Bft)
21.02.2014 20:46 4,9 C 2,8 C 84 % 1009,3 hPa 0,0 l/m 0 min 0 min 0,0 UV-I 0 W/m 10,3 km/h (2 Bft)
21.02.2014 20:48 4,8 C 3,3 C 84 % 1009,3 hPa 0,0 l/m 0 min 0 min 0,0 UV-I 0 W/m 0,0 km/h (0 Bft)
21.02.2014 20:50 4,8 C 2,8 C 84 % 1009,3 hPa 0,0 l/m 0 min 0 min 0,0 UV-I 0 W/m 10,3 km/h (2 Bft)
21.02.2014 20:52 4,8 C 2,8 C 84 % 1009,3 hPa 0,0 l/m 0 min 0 min 0,0 UV-I 0 W/m 7,7 km/h (2 Bft)
21.02.2014 20:54 4,8 C 2,8 C 85 % 1009,3 hPa 0,0 l/m 0 min 0 min 0,0 UV-I 0 W/m 10,3 km/h (2 Bft)
21.02.2014 20:56 4,8 C 2,8 C 85 % 1009,3 hPa 0,0 l/m 0 min 0 min 0,0 UV-I 0 W/m 0,0 km/h (0 Bft)
21.02.2014 20:58 4,8 C 2,8 C 85 % 1009,2 hPa 0,0 l/m 0 min 0 min 0,0 UV-I 0 W/m 2,6 km/h (1 Bft)
21.02.2014 21:00 4,7 C 2,8 C 85 % 1009,2 hPa 0,0 l/m 0 min 0 min 0,0 UV-I 0 W/m 0,0 km/h (0 Bft)
21.02.2014 21:02 4,7 C 2,8 C 85 % 1009,2 hPa 0,0 l/m 0 min 0 min 0,0 UV-I 0 W/m 0,0 km/h (0 Bft)
21.02.2014 21:04 4,7 C 2,8 C 85 % 1009,2 hPa 0,0 l/m 0 min 0 min 0,0 UV-I 0 W/m 0,0 km/h (0 Bft)
21.02.2014 21:06 4,7 C 2,8 C 85 % 1009,3 hPa 0,0 l/m 0 min 0 min 0,0 UV-I 0 W/m 10,3 km/h (2 Bft)
21.02.2014 21:08 4,7 C 2,8 C 85 % 1009,4 hPa 0,0 l/m 0 min 0 min 0,0 UV-I 0 W/m 5,1 km/h (1 Bft)
21.02.2014 21:10 4,7 C 2,8 C 85 % 1009,4 hPa 0,0 l/m 0 min 0 min 0,0 UV-I 0 W/m 0,0 km/h (0 Bft)
21.02.2014 21:12 4,6 C 2,8 C 85 % 1009,4 hPa 0,0 l/m 0 min 0 min 0,0 UV-I 0 W/m 2,6 km/h (1 Bft)
21.02.2014 21:14 4,6 C 2,8 C 85 % 1009,4 hPa 0,0 l/m 0 min 0 min 0,0 UV-I 0 W/m 5,1 km/h (1 Bft)
21.02.2014 21:16 4,6 C 2,8 C 86 % 1009,4 hPa 0,0 l/m 0 min 0 min 0,0 UV-I 0 W/m 0,0 km/h (0 Bft)
21.02.2014 21:18 4,6 C 2,8 C 86 % 1009,4 hPa 0,0 l/m 0 min 0 min 0,0 UV-I 0 W/m 0,0 km/h (0 Bft)
21.02.2014 21:20 4,6 C 2,8 C 86 % 1009,4 hPa 0,0 l/m 0 min 0 min 0,0 UV-I 0 W/m 0,0 km/h (0 Bft)
21.02.2014 21:22 4,6 C 2,8 C 86 % 1009,4 hPa 0,0 l/m 0 min 0 min 0,0 UV-I 0 W/m 2,6 km/h (1 Bft)
21.02.2014 21:24 4,6 C 2,8 C 86 % 1009,4 hPa 0,0 l/m 0 min 0 min 0,0 UV-I 0 W/m 0,0 km/h (0 Bft)
21.02.2014 21:26 4,5 C 2,8 C 86 % 1009,4 hPa 0,0 l/m 0 min 0 min 0,0 UV-I 0 W/m 0,0 km/h (0 Bft)
21.02.2014 21:28 4,4 C 2,8 C 86 % 1009,4 hPa 0,0 l/m 0 min 0 min 0,0 UV-I 0 W/m 5,1 km/h (1 Bft)
21.02.2014 21:30 4,4 C 2,8 C 86 % 1009,5 hPa 0,0 l/m 0 min 0 min 0,0 UV-I 0 W/m 2,6 km/h (1 Bft)
21.02.2014 21:32 4,3 C 2,2 C 87 % 1009,5 hPa 0,0 l/m 0 min 0 min 0,0 UV-I 0 W/m 0,0 km/h (0 Bft)
21.02.2014 21:34 4,3 C 2,2 C 87 % 1009,5 hPa 0,0 l/m 0 min 0 min 0,0 UV-I 0 W/m 5,1 km/h (1 Bft)
21.02.2014 21:36 4,4 C 2,8 C 87 % 1009,5 hPa 0,0 l/m 0 min 0 min 0,0 UV-I 0 W/m 7,7 km/h (2 Bft)
21.02.2014 21:38 4,4 C 2,8 C 87 % 1009,5 hPa 0,0 l/m 0 min 0 min 0,0 UV-I 0 W/m 7,7 km/h (2 Bft)
21.02.2014 21:40 4,4 C 2,8 C 87 % 1009,5 hPa 0,0 l/m 0 min 0 min 0,0 UV-I 0 W/m 0,0 km/h (0 Bft)
21.02.2014 21:42 4,4 C 2,8 C 87 % 1009,5 hPa 0,0 l/m 0 min 0 min 0,0 UV-I 0 W/m 0,0 km/h (0 Bft)
21.02.2014 21:44 4,4 C 2,8 C 87 % 1009,5 hPa 0,0 l/m 0 min 0 min 0,0 UV-I 0 W/m 5,1 km/h (1 Bft)
21.02.2014 21:46 4,4 C 2,8 C 87 % 1009,6 hPa 0,0 l/m 0 min 0 min 0,0 UV-I 0 W/m 0,0 km/h (0 Bft)
21.02.2014 21:48 4,4 C 2,8 C 87 % 1009,6 hPa 0,0 l/m 0 min 0 min 0,0 UV-I 0 W/m 10,3 km/h (2 Bft)
21.02.2014 21:50 4,4 C 2,8 C 87 % 1009,5 hPa 0,0 l/m 0 min 0 min 0,0 UV-I 0 W/m 10,3 km/h (2 Bft)
21.02.2014 21:52 4,5 C 2,8 C 87 % 1009,6 hPa 0,0 l/m 0 min 0 min 0,0 UV-I 0 W/m 10,3 km/h (2 Bft)
21.02.2014 21:54 4,5 C 2,8 C 87 % 1009,6 hPa 0,0 l/m 0 min 0 min 0,0 UV-I 0 W/m 12,9 km/h (3 Bft)
21.02.2014 21:56 4,6 C 2,8 C 87 % 1009,5 hPa 0,0 l/m 0 min 0 min 0,0 UV-I 0 W/m 12,9 km/h (3 Bft)
21.02.2014 21:58 4,6 C 3,3 C 87 % 1009,6 hPa 0,0 l/m 0 min 0 min 0,0 UV-I 0 W/m 15,4 km/h (3 Bft)
21.02.2014 22:00 4,6 C 3,3 C 87 % 1009,6 hPa 0,0 l/m 0 min 0 min 0,0 UV-I 0 W/m 7,7 km/h (2 Bft)
21.02.2014 22:02 4,7 C 3,3 C 87 % 1009,5 hPa 0,0 l/m 0 min 0 min 0,0 UV-I 0 W/m 7,7 km/h (2 Bft)
21.02.2014 22:04 4,7 C 3,3 C 87 % 1009,6 hPa 0,0 l/m 0 min 0 min 0,0 UV-I 0 W/m 12,9 km/h (3 Bft)
21.02.2014 22:06 4,8 C 3,3 C 86 % 1009,7 hPa 0,0 l/m 0 min 0 min 0,0 UV-I 0 W/m 12,9 km/h (3 Bft)
21.02.2014 22:08 4,8 C 3,3 C 86 % 1009,7 hPa 0,0 l/m 0 min 0 min 0,0 UV-I 0 W/m 5,1 km/h (1 Bft)
21.02.2014 22:10 4,8 C 3,3 C 86 % 1009,7 hPa 0,0 l/m 0 min 0 min 0,0 UV-I 0 W/m 12,9 km/h (3 Bft)
21.02.2014 22:12 4,8 C 3,3 C 86 % 1009,6 hPa 0,0 l/m 0 min 0 min 0,0 UV-I 0 W/m 18,0 km/h (3 Bft)
21.02.2014 22:14 4,8 C 3,3 C 85 % 1009,7 hPa 0,0 l/m 0 min 0 min 0,0 UV-I 0 W/m 7,7 km/h (2 Bft)
21.02.2014 22:16 4,8 C 3,3 C 85 % 1009,7 hPa 0,0 l/m 0 min 0 min 0,0 UV-I 0 W/m 10,3 km/h (2 Bft)
21.02.2014 22:18 4,8 C 3,3 C 85 % 1009,6 hPa 0,0 l/m 0 min 0 min 0,0 UV-I 0 W/m 7,7 km/h (2 Bft)
21.02.2014 22:20 4,7 C 2,8 C 85 % 1009,6 hPa 0,0 l/m 0 min 0 min 0,0 UV-I 0 W/m 0,0 km/h (0 Bft)
21.02.2014 22:22 4,7 C 2,8 C 85 % 1009,6 hPa 0,0 l/m 0 min 0 min 0,0 UV-I 0 W/m 7,7 km/h (2 Bft)
21.02.2014 22:24 4,6 C 2,8 C 86 % 1009,5 hPa 0,0 l/m 0 min 0 min 0,0 UV-I 0 W/m 7,7 km/h (2 Bft)
21.02.2014 22:26 4,6 C 2,8 C 86 % 1009,5 hPa 0,0 l/m 0 min 0 min 0,0 UV-I 0 W/m 7,7 km/h (2 Bft)
21.02.2014 22:28 4,6 C 2,8 C 86 % 1009,7 hPa 0,0 l/m 0 min 0 min 0,0 UV-I 0 W/m 10,3 km/h (2 Bft)
21.02.2014 22:30 4,6 C 2,8 C 86 % 1009,6 hPa 0,0 l/m 0 min 0 min 0,0 UV-I 0 W/m 10,3 km/h (2 Bft)
21.02.2014 22:32 4,6 C 2,8 C 86 % 1009,7 hPa 0,0 l/m 0 min 0 min 0,0 UV-I 0 W/m 5,1 km/h (1 Bft)
21.02.2014 22:34 4,6 C 2,8 C 86 % 1009,6 hPa 0,0 l/m 0 min 0 min 0,0 UV-I 0 W/m 12,9 km/h (3 Bft)
21.02.2014 22:36 4,6 C 2,8 C 86 % 1009,6 hPa 0,0 l/m 0 min 0 min 0,0 UV-I 0 W/m 10,3 km/h (2 Bft)
21.02.2014 22:38 4,5 C 2,8 C 86 % 1009,7 hPa 0,0 l/m 0 min 0 min 0,0 UV-I 0 W/m 7,7 km/h (2 Bft)
21.02.2014 22:40 4,5 C 2,8 C 86 % 1009,7 hPa 0,0 l/m 0 min 0 min 0,0 UV-I 0 W/m 5,1 km/h (1 Bft)
21.02.2014 22:42 4,4 C 2,8 C 86 % 1009,6 hPa 0,0 l/m 0 min 0 min 0,0 UV-I 0 W/m 10,3 km/h (2 Bft)
21.02.2014 22:44 4,4 C 2,8 C 86 % 1009,6 hPa 0,0 l/m 0 min 0 min 0,0 UV-I 0 W/m 7,7 km/h (2 Bft)
21.02.2014 22:46 4,4 C 2,8 C 87 % 1009,7 hPa 0,0 l/m 0 min 0 min 0,0 UV-I 0 W/m 2,6 km/h (1 Bft)
21.02.2014 22:48 4,3 C 2,8 C 87 % 1009,7 hPa 0,0 l/m 0 min 0 min 0,0 UV-I 0 W/m 7,7 km/h (2 Bft)
21.02.2014 22:50 4,3 C 2,8 C 87 % 1009,7 hPa 0,0 l/m 0 min 0 min 0,0 UV-I 0 W/m 12,9 km/h (3 Bft)
21.02.2014 22:52 4,3 C 2,8 C 87 % 1009,7 hPa 0,0 l/m 0 min 0 min 0,0 UV-I 0 W/m 15,4 km/h (3 Bft)
21.02.2014 22:54 4,3 C 2,8 C 87 % 1009,5 hPa 0,0 l/m 0 min 0 min 0,0 UV-I 0 W/m 7,7 km/h (2 Bft)
21.02.2014 22:56 4,3 C 2,8 C 87 % 1009,6 hPa 0,0 l/m 0 min 0 min 0,0 UV-I 0 W/m 7,7 km/h (2 Bft)
21.02.2014 22:58 4,3 C 2,8 C 87 % 1009,6 hPa 0,0 l/m 0 min 0 min 0,0 UV-I 0 W/m 5,1 km/h (1 Bft)
21.02.2014 23:00 4,2 C 2,8 C 87 % 1009,6 hPa 0,0 l/m 0 min 0 min 0,0 UV-I 0 W/m 2,6 km/h (1 Bft)
21.02.2014 23:02 4,2 C 2,8 C 87 % 1009,7 hPa 0,0 l/m 0 min 0 min 0,0 UV-I 0 W/m 10,3 km/h (2 Bft)
21.02.2014 23:04 4,2 C 2,8 C 87 % 1009,7 hPa 0,0 l/m 0 min 0 min 0,0 UV-I 0 W/m 7,7 km/h (2 Bft)
21.02.2014 23:06 4,2 C 2,8 C 88 % 1009,8 hPa 0,0 l/m 0 min 0 min 0,0 UV-I 0 W/m 12,9 km/h (3 Bft)
21.02.2014 23:08 4,3 C 2,8 C 87 % 1009,8 hPa 0,0 l/m 0 min 0 min 0,0 UV-I 0 W/m 15,4 km/h (3 Bft)
21.02.2014 23:10 4,3 C 2,8 C 87 % 1009,7 hPa 0,0 l/m 0 min 0 min 0,0 UV-I 0 W/m 2,6 km/h (1 Bft)
21.02.2014 23:12 4,3 C 2,8 C 87 % 1009,8 hPa 0,0 l/m 0 min 0 min 0,0 UV-I 0 W/m 5,1 km/h (1 Bft)
21.02.2014 23:14 4,3 C 2,8 C 87 % 1009,8 hPa 0,0 l/m 0 min 0 min 0,0 UV-I 0 W/m 2,6 km/h (1 Bft)
21.02.2014 23:16 4,3 C 2,8 C 87 % 1009,8 hPa 0,0 l/m 0 min 0 min 0,0 UV-I 0 W/m 12,9 km/h (3 Bft)
21.02.2014 23:18 4,3 C 2,8 C 87 % 1009,9 hPa 0,0 l/m 0 min 0 min 0,0 UV-I 0 W/m 7,7 km/h (2 Bft)
21.02.2014 23:20 4,3 C 2,8 C 87 % 1009,9 hPa 0,0 l/m 0 min 0 min 0,0 UV-I 0 W/m 2,6 km/h (1 Bft)
21.02.2014 23:22 4,2 C 2,8 C 87 % 1009,9 hPa 0,0 l/m 0 min 0 min 0,0 UV-I 0 W/m 5,1 km/h (1 Bft)
21.02.2014 23:24 4,2 C 2,8 C 87 % 1009,9 hPa 0,0 l/m 0 min 0 min 0,0 UV-I 0 W/m 0,0 km/h (0 Bft)
21.02.2014 23:26 4,2 C 2,2 C 87 % 1009,9 hPa 0,0 l/m 0 min 0 min 0,0 UV-I 0 W/m 0,0 km/h (0 Bft)
21.02.2014 23:28 4,2 C 2,2 C 87 % 1009,9 hPa 0,0 l/m 0 min 0 min 0,0 UV-I 0 W/m 2,6 km/h (1 Bft)
21.02.2014 23:30 4,2 C 2,2 C 87 % 1009,9 hPa 0,0 l/m 0 min 0 min 0,0 UV-I 0 W/m 2,6 km/h (1 Bft)
21.02.2014 23:32 4,2 C 2,8 C 87 % 1009,9 hPa 0,0 l/m 0 min 0 min 0,0 UV-I 0 W/m 5,1 km/h (1 Bft)
21.02.2014 23:34 4,2 C 2,8 C 87 % 1010,0 hPa 0,0 l/m 0 min 0 min 0,0 UV-I 0 W/m 0,0 km/h (0 Bft)
21.02.2014 23:36 4,2 C 2,2 C 87 % 1009,9 hPa 0,0 l/m 0 min 0 min 0,0 UV-I 0 W/m 0,0 km/h (0 Bft)
21.02.2014 23:38 4,2 C 2,2 C 87 % 1010,0 hPa 0,0 l/m 0 min 0 min 0,0 UV-I 0 W/m 2,6 km/h (1 Bft)
21.02.2014 23:40 4,2 C 2,2 C 87 % 1010,0 hPa 0,0 l/m 0 min 0 min 0,0 UV-I 0 W/m 7,7 km/h (2 Bft)
21.02.2014 23:42 4,1 C 2,2 C 87 % 1009,9 hPa 0,0 l/m 0 min 0 min 0,0 UV-I 0 W/m 0,0 km/h (0 Bft)
21.02.2014 23:44 4,1 C 2,2 C 87 % 1009,9 hPa 0,0 l/m 0 min 0 min 0,0 UV-I 0 W/m 0,0 km/h (0 Bft)
21.02.2014 23:46 4,1 C 2,2 C 88 % 1009,9 hPa 0,0 l/m 0 min 0 min 0,0 UV-I 0 W/m 7,7 km/h (2 Bft)
21.02.2014 23:48 4,0 C 2,2 C 88 % 1009,8 hPa 0,0 l/m 0 min 0 min 0,0 UV-I 0 W/m 10,3 km/h (2 Bft)
21.02.2014 23:50 3,9 C 2,2 C 88 % 1009,8 hPa 0,0 l/m 0 min 0 min 0,0 UV-I 0 W/m 7,7 km/h (2 Bft)
21.02.2014 23:52 3,9 C 2,2 C 88 % 1009,8 hPa 0,0 l/m 0 min 0 min 0,0 UV-I 0 W/m 2,6 km/h (1 Bft)
21.02.2014 23:54 3,9 C 2,2 C 88 % 1009,8 hPa 0,0 l/m 0 min 0 min 0,0 UV-I 0 W/m 7,7 km/h (2 Bft)
21.02.2014 23:56 3,9 C 2,2 C 88 % 1009,8 hPa 0,0 l/m 0 min 0 min 0,0 UV-I 0 W/m 7,7 km/h (2 Bft)
21.02.2014 23:58 3,9 C 2,2 C 88 % 1009,8 hPa 0,0 l/m 0 min 0 min 0,0 UV-I 0 W/m 7,7 km/h (2 Bft)
_ Min-Zeit 23:50 21:32 16:48 00:08 - - - - - 00:18
Minimum _ 3,9 C 2,2 C 69 % 1002,9 hPa - - - - - 0,0 km/h (0 Bft)
_ Max-Zeit 15:26 15:12 00:00 23:34 00:08 09:22 00:00 14:08 15:12 10:52
Maximum _ 9,8 C 8,9 C 96 % 1010,0 hPa 0,2 l/m 2 min 2 min 0,5 UV-I 512 W/m 41,2 km/h
SW (6 Bft)
Durchschnitt _ 7,3 C 5,5 C 85 % 1005,8 hPa #1,6 l/m #3:00 h #1:52 h 0,5 UV-I 147 W/m 10,3 km/h (2 Bft)
© 2014 W. Hausmann